GFSSGP_700_rhum_087.txt.gz
RH
10 9 9 8 10 17 16 14 21 21 19 17 17 18 17 16 16 18 24 29 36 38 36 31 22 24 25 25 25 38 71 66 61 70 55 42 36 29 31 23 29 35 48 55 28 14 7 24 15
10 10 9 9 12 15 9 20 20 21 20 20 19 19 18 16 17 24 30 35 35 35 33 28 28 29 27 29 35 54 83 73 76 78 71 66 69 58 65 41 31 36 52 50 22 12 5 8 8
9 10 9 9 10 7 12 21 22 22 22 23 20 19 18 18 18 23 33 35 32 37 37 31 28 29 29 32 40 53 90 80 87 88 79 74 76 79 68 37 29 28 46 32 18 8 8 11 9
10 10 10 11 6 6 10 22 20 22 25 22 21 21 18 17 20 26 29 32 34 39 38 28 27 30 30 38 40 57 93 86 86 90 84 77 74 81 72 55 33 27 23 15 17 8 11 10 9
11 10 12 9 6 4 7 17 21 20 21 21 22 22 18 18 24 28 31 34 39 39 35 28 27 29 26 41 42 62 86 95 93 96 100 93 85 84 84 90 52 25 16 17 16 10 11 9 9
12 12 14 9 5 5 6 14 21 18 20 20 25 21 21 21 28 33 38 38 36 34 31 26 27 28 23 36 48 52 72 86 76 85 87 98 90 97 98 92 68 30 26 18 11 18 10 10 10
10 13 11 8 6 6 5 20 20 18 20 19 21 21 20 20 25 26 27 32 30 30 28 29 26 24 24 24 37 52 59 75 76 76 90 98 94 82 54 95 84 45 60 41 18 13 10 10 12
10 15 13 9 8 5 6 20 21 22 21 21 21 21 20 20 22 24 28 30 32 36 38 35 24 31 34 32 30 46 57 63 70 75 83 92 81 82 73 89 92 80 64 28 36 12 11 12 14
11 18 15 7 7 5 10 22 24 24 24 24 22 20 21 22 25 27 29 30 35 35 33 29 25 37 36 39 39 38 51 54 63 68 79 86 83 85 75 97 95 97 71 36 36 13 12 14 17
11 16 12 6 5 5 8 20 21 24 25 26 24 22 21 25 25 27 30 32 30 25 24 24 24 26 32 45 43 40 43 47 49 54 70 81 90 94 87 99 97 96 52 20 19 14 15 17 24
9 9 7 5 6 7 8 12 18 22 22 23 21 22 22 25 26 26 29 27 25 24 24 23 21 22 23 23 31 51 59 61 61 74 82 94 91 93 80 99 100 92 47 22 20 20 15 17 20
16 11 10 8 9 12 12 13 17 23 23 21 21 21 20 22 26 26 26 25 24 24 26 26 18 17 19 18 16 19 42 66 73 67 81 90 76 98 98 99 98 96 47 24 19 16 17 17 22
23 19 15 12 10 13 15 15 19 22 22 21 21 21 20 19 19 20 24 23 22 24 25 28 16 19 19 20 17 20 25 45 77 76 89 94 98 99 99 96 94 86 51 24 20 18 18 18 23
26 26 22 16 14 21 24 21 28 22 20 20 21 22 21 20 20 20 20 21 22 27 26 22 13 16 19 20 17 21 26 34 60 98 99 99 99 97 94 71 45 83 61 23 22 18 18 20 24
23 35 36 35 29 22 24 29 22 23 21 22 21 21 22 21 20 21 21 21 23 28 26 18 11 12 15 20 17 18 22 34 70 96 98 100 99 99 99 68 39 32 47 24 25 22 21 22 26
43 36 47 41 34 28 31 27 22 21 20 20 20 20 22 23 21 21 21 22 22 29 25 18 12 13 16 17 16 21 24 44 85 99 100 100 99 99 87 52 56 79 76 33 27 26 25 29 35
43 50 49 45 39 37 34 32 28 25 24 24 23 20 20 22 22 21 21 22 24 31 26 26 25 15 14 14 17 22 32 75 88 96 100 97 100 100 88 72 88 93 93 53 28 31 33 28 34
53 47 48 46 41 40 35 34 30 24 24 27 23 22 22 22 22 22 22 24 31 33 30 29 29 28 14 13 19 27 48 84 83 96 98 100 98 100 98 98 100 90 90 49 34 35 38 36 40
51 53 53 49 46 43 41 37 34 29 26 28 27 28 23 22 22 24 28 26 33 42 36 28 27 30 18 14 18 41 59 91 88 86 99 100 98 98 100 100 100 99 84 59 50 42 42 42 41
51 58 59 55 50 47 44 37 34 31 27 26 28 28 24 21 24 29 30 30 33 40 45 29 27 28 23 14 17 45 68 86 93 85 91 100 98 99 99 99 98 100 91 77 48 44 40 45 49
36 38 47 47 45 46 40 40 37 32 33 27 28 30 24 22 28 26 29 31 31 38 44 34 30 28 27 13 18 37 61 74 81 79 94 91 99 98 100 100 100 100 99 96 58 44 52 57 56
38 37 35 43 47 51 49 63 43 32 33 32 28 32 26 25 29 28 26 29 31 34 46 41 31 28 29 12 19 23 61 73 83 85 82 95 100 98 99 100 100 100 100 100 98 81 61 64 80
55 60 59 55 50 64 71 77 36 29 27 25 30 31 28 24 26 24 23 24 31 34 45 46 36 28 29 11 19 19 42 67 85 84 86 87 98 100 100 99 98 100 100 100 100 99 93 80 76
64 61 55 64 71 92 61 73 36 33 21 23 28 31 30 25 25 24 24 23 30 34 46 51 45 30 30 11 18 18 20 45 70 80 82 79 98 100 100 87 100 96 100 99 100 100 94 85 71
56 57 79 93 98 81 59 76 46 40 46 36 26 31 28 25 27 28 27 23 23 30 43 51 49 32 31 11 18 19 20 21 36 60 71 78 72 76 96 99 100 84 100 99 100 99 97 85 91
59 69 68 94 92 94 71 75 72 65 50 44 43 35 30 28 28 27 27 25 22 26 42 43 45 33 30 12 17 21 21 23 23 28 40 59 78 88 100 96 92 99 97 100 100 99 100 99 93
64 77 65 71 81 99 83 66 60 52 53 47 50 42 31 29 27 26 24 25 22 25 40 42 52 36 32 15 13 22 24 25 28 29 29 39 68 82 91 98 90 94 99 100 100 100 100 100 100
62 56 77 98 98 98 74 66 79 86 62 59 47 44 34 30 26 24 25 24 22 30 45 55 59 47 37 31 14 17 24 27 28 30 31 34 46 63 82 95 94 97 98 93 93 92 99 100 99
63 69 71 87 84 99 96 79 100 100 89 75 60 47 35 31 27 23 24 23 27 42 50 54 61 66 48 38 30 15 18 24 27 29 32 35 37 42 48 59 75 88 97 97 96 96 95 90 85
55 53 62 81 96 99 99 86 95 94 97 88 76 62 43 34 27 24 22 25 42 44 51 59 70 75 77 57 50 44 21 18 23 26 29 32 35 38 39 42 45 49 60 76 87 100 100 99 91

GFSSGP_700_rhum_093.txt.gz
RH
9 10 10 10 9 10 9 8 13 18 19 19 19 20 19 19 18 18 17 19 25 26 32 31 26 27 24 25 27 25 25 28 36 56 60 53 45 62 86 92 82 78 90 75 68 32 33 15 46
7 9 10 10 10 12 11 7 14 20 19 20 20 19 18 19 18 17 18 20 22 30 31 31 30 28 28 26 27 29 32 36 41 58 63 54 54 76 77 88 78 68 61 79 68 60 22 14 48
6 8 11 12 10 11 9 9 22 22 21 20 20 18 19 18 18 18 19 22 28 27 24 32 32 30 26 22 26 31 34 40 52 67 69 66 76 81 79 81 71 68 56 52 55 56 35 16 44
6 8 11 11 8 7 7 17 22 23 24 22 21 21 19 18 19 19 20 24 28 30 33 31 29 29 24 22 24 32 40 47 67 73 64 68 72 72 72 73 81 89 80 61 55 52 44 22 32
6 8 11 10 7 6 6 21 23 20 22 25 26 21 19 19 20 21 22 24 31 32 32 30 29 28 23 24 24 30 45 56 80 82 88 84 81 77 76 78 92 99 97 78 64 54 35 20 8
7 8 12 9 6 6 6 7 13 12 13 21 23 21 20 19 21 22 22 26 27 27 26 29 30 26 22 26 30 33 45 65 75 83 96 99 88 86 82 87 88 99 98 92 84 46 33 15 10
6 7 8 8 6 6 6 7 8 8 12 20 20 21 20 20 23 22 21 23 26 25 30 27 24 24 20 29 34 32 33 47 69 80 88 81 96 91 96 96 99 99 98 95 96 56 31 15 15
12 13 15 9 8 8 8 8 9 14 21 21 20 22 21 21 26 22 23 25 26 28 30 27 25 24 20 23 24 36 36 35 55 74 90 98 93 94 92 99 78 72 80 92 96 49 35 16 22
19 26 19 11 8 8 9 9 10 12 24 23 23 23 23 27 25 24 24 26 26 28 27 27 27 25 24 18 20 28 43 39 49 58 73 81 85 87 87 87 90 83 80 89 97 55 68 24 39
24 21 20 14 11 8 8 8 8 19 25 27 30 28 32 29 28 26 25 25 26 25 26 27 27 25 26 20 14 14 26 45 45 48 52 59 65 72 88 96 95 83 85 93 97 81 54 58 40
28 27 24 21 17 12 10 9 8 10 23 24 26 31 32 30 27 24 24 26 26 24 24 27 28 26 26 23 16 14 15 24 44 44 44 50 60 74 79 92 90 83 86 98 97 77 64 56 27
32 30 29 28 24 19 15 11 11 9 12 20 22 24 27 25 23 21 21 20 25 24 24 26 29 29 27 23 15 15 17 17 18 46 56 55 59 68 84 92 95 91 90 99 98 80 65 28 32
36 32 31 30 28 26 21 16 13 11 9 12 15 16 24 23 21 20 20 21 22 21 22 26 27 31 27 21 14 14 18 19 19 20 32 66 74 77 83 98 96 97 97 100 100 68 55 31 26
44 39 35 31 30 28 27 26 21 18 11 7 7 10 22 22 21 20 20 21 21 21 21 25 26 32 28 18 13 14 15 19 20 19 25 50 82 87 72 76 99 94 96 100 100 66 43 28 28
46 41 39 37 35 30 29 30 29 25 19 13 7 10 17 22 21 20 21 21 22 22 23 24 26 33 27 22 17 14 17 17 15 19 24 36 85 92 95 84 99 100 92 98 100 51 31 27 38
44 44 46 44 40 37 32 35 32 30 28 25 19 15 14 22 22 21 20 21 21 21 22 25 28 35 30 26 26 18 15 14 18 22 26 37 70 99 100 98 98 100 98 99 99 40 29 26 32
49 54 57 50 42 39 34 34 35 34 34 33 30 27 23 17 22 21 21 20 21 20 22 23 27 38 34 27 30 25 14 15 19 31 38 83 90 100 100 100 98 100 100 98 91 36 25 24 24
53 51 41 48 48 45 41 43 42 38 40 39 38 36 33 28 21 20 20 19 20 21 22 24 33 37 31 27 32 29 15 18 22 50 78 91 99 99 100 100 97 100 100 99 77 35 24 26 25
43 43 51 55 51 50 44 41 43 41 39 40 38 37 35 33 27 21 21 20 20 21 22 24 37 40 30 28 33 32 15 17 33 64 87 93 99 97 100 100 100 100 100 98 85 51 25 26 27
46 49 51 48 48 49 47 44 44 44 39 38 37 35 34 33 30 25 20 22 22 22 23 27 38 43 37 30 33 32 15 17 44 73 81 95 100 100 100 100 99 97 92 97 67 48 35 28 29
42 43 44 46 47 47 44 45 42 36 33 30 31 31 32 33 32 29 23 29 24 22 25 32 35 43 44 32 32 31 16 18 55 75 77 98 97 98 99 100 82 69 69 84 77 85 47 59 76
34 30 33 40 40 43 47 44 44 24 19 18 19 19 19 22 30 30 25 29 22 23 28 31 34 43 47 34 32 29 16 18 58 79 78 81 99 98 99 99 92 87 87 94 95 77 66 38 33
34 27 35 38 53 61 57 60 25 28 21 28 36 34 37 12 19 28 25 28 24 24 27 30 35 40 48 43 32 26 18 18 48 73 79 75 83 100 98 100 99 99 98 100 99 85 68 50 44
42 41 62 64 64 66 43 56 44 38 43 38 33 37 47 35 14 24 25 29 27 25 28 30 33 39 50 48 33 24 18 18 30 70 81 79 77 97 100 100 98 100 99 98 100 100 100 100 71
48 66 69 64 74 43 67 73 56 56 47 50 46 40 47 49 40 22 26 28 27 24 28 28 33 38 50 50 35 24 19 20 21 55 79 82 73 76 89 98 100 99 100 100 100 100 98 98 97
68 65 56 50 64 65 67 45 58 58 55 66 52 60 52 47 46 38 27 28 30 25 25 25 31 38 51 52 40 25 19 21 21 29 57 77 75 76 92 92 99 100 100 100 100 92 100 99 91
72 61 55 62 83 73 59 51 54 58 75 75 72 65 67 61 44 44 33 30 30 27 25 24 27 37 52 56 44 23 20 23 23 26 32 40 50 67 84 96 95 93 99 95 98 96 94 100 97
51 54 67 63 83 81 60 74 74 62 54 66 83 83 56 56 51 48 41 35 32 29 26 25 26 38 55 58 43 23 20 26 24 27 28 30 37 52 66 92 99 100 100 97 98 100 94 92 98
58 59 56 65 85 72 78 60 59 64 79 86 92 81 97 68 52 48 46 40 35 32 29 30 28 37 59 63 44 31 17 26 28 30 31 32 33 40 55 72 88 98 99 100 99 94 97 97 100
63 60 62 64 91 96 96 68 62 70 79 88 94 89 87 98 62 57 45 41 35 31 29 30 30 39 61 72 60 44 19 22 27 30 34 35 35 39 46 57 72 80 88 90 91 89 86 97 99

GFSSGP_700_rhum_096.txt.gz
RH
5 8 10 10 20 18 11 11 18 21 18 17 17 18 23 25 30 22 18 17 17 19 23 33 29 29 26 24 24 24 23 24 28 43 44 48 54 53 69 82 94 70 71 61 51 45 58 28 30
5 6 10 15 16 11 8 12 13 18 22 18 18 18 19 24 19 18 17 17 19 22 21 27 27 27 26 24 22 24 25 25 31 42 52 56 57 66 87 97 96 85 67 67 58 56 27 25 36
5 6 17 19 16 11 9 11 12 19 18 20 22 20 28 29 19 19 18 18 20 26 26 27 28 28 24 21 18 22 26 29 35 44 56 63 72 88 89 98 96 99 74 63 69 61 53 20 38
6 7 10 18 12 14 13 13 22 21 20 20 20 26 20 19 19 20 19 19 24 29 30 29 28 24 22 19 22 21 28 32 38 52 67 83 90 92 91 93 94 90 94 72 74 69 59 28 26
6 19 18 18 12 11 15 17 26 26 22 23 22 23 24 19 19 20 20 20 25 29 27 28 28 23 21 20 25 25 25 36 40 47 63 71 72 75 79 81 82 90 97 98 86 82 60 38 27
14 16 16 12 12 14 14 14 23 22 21 18 22 22 24 18 19 20 22 20 22 24 24 25 22 23 21 22 30 30 31 38 55 65 69 76 83 79 80 78 78 88 94 100 96 81 59 37 21
15 22 14 11 11 12 17 12 7 13 16 20 14 22 25 19 20 20 23 21 23 25 25 29 26 23 22 18 23 29 31 33 54 69 80 86 78 94 94 85 92 90 94 99 99 97 73 40 27
25 24 21 14 16 14 17 9 7 8 18 8 12 24 28 23 20 21 23 22 24 26 26 28 29 25 23 19 18 20 34 33 34 50 71 86 88 91 96 98 88 81 77 85 96 98 93 60 21
27 30 22 18 18 16 16 11 9 11 12 14 21 23 22 21 21 24 23 23 25 26 26 26 27 26 24 23 16 14 23 37 32 33 56 78 93 97 96 97 90 83 84 79 87 96 97 80 32
30 34 28 24 21 21 19 18 20 12 13 21 26 25 27 24 23 25 24 24 24 26 26 26 27 27 24 23 22 15 13 16 36 38 43 50 66 81 94 91 87 86 88 88 89 99 97 87 45
41 35 31 30 28 24 22 22 20 20 16 23 27 27 30 30 27 26 26 22 24 27 23 26 28 29 27 25 23 16 15 15 16 33 40 43 47 57 71 82 82 92 93 88 89 100 95 85 52
43 39 39 33 34 28 26 27 26 24 16 16 25 23 24 31 32 30 27 22 22 22 24 26 27 28 30 28 23 15 16 16 17 19 32 42 44 50 62 76 83 87 89 91 93 100 98 79 72
52 50 41 41 33 33 30 30 30 30 19 8 13 18 22 26 30 29 26 22 19 20 21 22 25 27 31 30 24 13 14 17 19 20 18 23 37 50 60 71 81 90 90 96 94 100 98 79 72
49 52 48 44 40 37 37 34 31 36 24 15 9 13 16 16 27 23 25 24 19 20 21 21 23 28 32 32 24 16 12 15 16 20 20 19 29 39 72 73 79 82 99 99 100 97 97 85 52
50 49 48 46 47 45 40 41 38 34 29 26 16 10 12 13 20 24 23 21 20 20 21 22 23 27 30 35 27 25 20 14 16 18 18 21 30 46 71 85 88 79 97 100 97 98 91 80 41
47 47 45 42 43 43 43 37 33 38 32 30 27 24 19 9 9 22 22 20 21 21 20 21 23 25 29 37 31 28 28 18 13 15 19 22 27 36 62 88 80 83 93 100 97 97 81 68 42
53 43 45 46 47 42 40 36 34 34 37 36 36 36 32 21 12 12 22 22 21 22 21 21 21 23 28 38 38 32 30 24 13 17 21 31 35 36 56 96 90 92 99 100 97 95 76 49 51
44 45 45 46 43 47 40 39 39 42 41 42 43 42 40 36 30 19 18 22 22 21 22 21 21 23 27 36 37 33 32 27 14 18 33 56 62 67 97 99 100 100 100 100 100 99 63 55 45
43 42 43 41 44 47 43 40 40 42 44 46 46 44 41 40 31 29 22 18 21 21 21 20 21 23 32 35 34 34 33 28 14 20 52 80 80 95 100 99 98 98 99 100 100 92 64 66 48
48 42 42 40 50 52 44 41 40 42 44 44 42 41 41 42 42 36 31 27 19 20 20 20 20 22 32 37 34 32 34 23 15 30 62 86 81 96 98 98 100 100 99 100 100 82 60 48 45
50 43 40 40 40 44 44 42 39 36 37 36 39 44 43 43 36 33 32 31 25 20 20 21 21 23 32 44 38 33 34 18 16 45 65 76 80 100 98 98 99 100 100 100 98 62 52 32 32
42 40 40 42 43 38 49 30 31 34 31 33 45 70 42 24 24 29 31 32 30 22 23 27 22 24 36 45 43 34 36 16 16 46 65 75 87 95 98 99 100 100 100 99 99 99 63 35 29
34 33 41 35 33 37 42 46 27 26 30 43 63 43 36 44 34 15 20 29 31 26 27 27 23 26 34 41 46 38 37 16 17 34 65 73 85 96 99 100 99 99 98 98 95 85 52 58 47
40 40 45 53 51 55 39 36 25 28 47 72 65 52 44 51 55 48 19 20 30 26 28 23 24 28 33 42 48 40 37 17 18 25 61 76 80 90 99 98 100 98 97 93 92 100 96 100 85
58 56 57 59 60 42 41 40 27 55 85 90 54 73 73 48 44 47 41 19 26 27 29 23 26 30 34 38 48 42 36 17 19 20 41 74 80 86 100 100 99 100 99 99 100 100 100 99 100
62 50 41 40 36 30 52 41 39 75 78 92 90 92 91 60 54 47 42 31 26 28 29 24 27 30 30 40 50 46 37 17 20 19 24 61 76 72 97 100 100 100 98 100 100 99 100 100 99
71 63 56 53 67 51 34 41 56 82 71 81 87 97 74 59 48 43 40 39 27 29 28 25 27 30 30 38 54 54 40 18 22 21 21 34 61 70 78 90 100 100 100 99 99 99 100 97 100
67 59 60 59 65 54 37 42 46 64 84 88 90 90 57 69 70 44 42 40 30 31 29 26 26 28 28 36 57 62 42 18 24 22 22 25 37 49 73 88 98 97 99 100 99 99 100 88 96
75 69 65 60 64 49 46 45 89 90 92 93 100 67 62 63 64 57 49 41 38 39 33 26 25 26 29 38 58 65 43 17 25 24 23 26 30 37 52 68 88 88 86 96 99 96 100 99 98
54 53 58 49 68 70 68 52 92 76 83 96 98 98 84 68 66 71 65 50 47 45 38 28 27 26 31 46 64 67 47 17 24 28 26 26 32 35 43 55 66 88 98 96 98 92 89 98 87

GFSSGP_700_rhum_102.txt.gz
RH
4 5 5 7 27 25 16 12 11 8 10 12 14 15 16 19 24 38 58 40 32 22 17 15 16 17 18 18 18 19 20 21 22 25 31 38 31 38 48 59 82 71 59 64 65 64 56 47 46
5 5 6 21 25 19 14 12 10 8 10 14 15 15 17 19 24 37 44 20 22 18 17 16 18 17 18 20 19 18 17 21 22 26 36 41 47 47 51 63 71 85 72 61 51 52 55 47 46
4 5 33 25 20 20 17 11 8 10 11 17 16 17 18 18 25 35 49 35 19 17 17 17 17 18 20 18 16 15 16 20 24 25 32 44 50 51 55 69 90 76 87 78 68 59 53 48 32
13 5 31 22 18 15 14 13 11 9 12 14 14 17 19 26 34 39 47 28 18 18 17 17 17 19 18 18 15 19 20 19 25 29 31 40 46 51 63 58 88 91 96 98 87 84 74 39 26
25 32 29 20 15 14 15 13 10 10 11 15 15 16 20 23 30 44 46 31 19 18 17 18 17 16 18 18 17 22 22 20 28 36 39 39 45 56 78 73 82 92 91 96 96 99 93 75 45
30 26 26 20 17 15 13 12 10 12 15 16 16 17 18 28 31 44 42 23 19 19 18 20 19 18 16 19 16 19 23 24 26 38 44 46 61 74 88 91 97 99 97 97 78 84 93 85 72
47 36 30 24 19 16 13 12 11 13 15 16 17 15 16 34 35 35 25 20 20 20 18 21 20 19 18 18 18 15 15 23 28 38 49 53 52 73 80 79 81 85 85 86 88 78 91 94 81
52 41 34 28 23 19 15 12 11 13 15 15 16 16 17 34 43 54 29 22 20 20 19 19 21 20 20 19 19 16 10 9 28 30 45 56 60 59 67 78 85 87 83 78 85 85 84 96 94
51 46 39 32 28 24 18 15 12 13 15 14 13 16 22 26 55 53 35 25 20 21 20 18 22 20 21 20 19 18 15 10 12 28 34 57 64 72 71 74 84 87 87 87 87 89 86 98 97
47 48 38 34 28 25 21 17 16 14 16 15 12 15 19 21 37 42 33 23 22 21 20 19 20 21 20 21 20 18 18 14 11 13 29 33 53 70 79 84 88 92 89 97 86 93 87 92 97
47 43 37 36 31 27 24 20 17 16 16 17 16 20 21 24 24 33 30 21 20 22 21 19 19 20 20 21 22 21 18 16 13 12 20 26 38 56 64 77 84 85 91 90 75 78 87 93 93
45 45 42 39 34 31 26 24 22 17 18 19 18 17 21 22 22 11 15 44 35 23 22 21 19 18 20 20 21 23 19 18 14 12 16 25 30 41 49 57 73 73 73 79 73 79 94 89 90
35 42 41 39 36 34 32 29 26 22 21 20 19 16 18 28 29 28 28 51 75 62 33 23 20 18 19 21 20 24 24 19 16 10 13 16 26 34 40 46 49 60 68 74 77 83 88 92 86
32 34 39 37 34 34 34 31 29 27 26 25 24 22 18 19 24 24 29 37 47 57 58 48 26 19 19 20 21 23 25 27 20 18 11 15 16 24 31 40 44 49 69 76 79 87 92 92 94
39 34 34 38 36 33 35 33 32 31 30 30 29 26 26 22 18 20 23 27 34 43 51 52 35 22 19 20 22 22 24 29 26 24 18 11 14 17 19 31 36 47 63 71 80 84 96 99 99
39 39 35 37 37 36 37 37 36 33 32 30 31 30 30 27 22 19 21 23 30 34 44 51 48 29 20 20 21 21 23 28 32 25 25 22 12 13 13 16 19 49 62 67 79 86 94 95 99
39 40 38 36 36 38 38 41 39 36 32 31 31 31 32 32 26 22 22 23 26 32 37 44 51 40 21 20 20 21 22 25 36 28 26 27 21 12 14 18 22 41 79 74 83 96 96 94 97
38 38 37 35 34 37 42 41 36 34 33 31 31 32 32 31 31 29 23 23 25 28 33 41 50 45 22 21 21 20 22 24 33 32 27 28 28 14 16 21 32 53 81 77 75 99 100 84 100
38 35 34 34 39 42 40 39 33 32 32 30 30 32 32 31 31 31 27 26 25 26 34 43 51 51 31 21 21 21 22 24 33 37 31 29 29 15 18 48 83 74 83 83 74 99 98 98 100
33 37 38 63 55 59 67 76 50 38 33 31 31 33 35 35 35 36 35 34 30 28 32 38 50 56 38 22 22 22 21 24 35 36 30 30 28 15 28 61 83 80 70 88 88 99 94 98 100
26 34 63 65 65 93 98 86 65 46 33 31 31 34 35 37 38 38 38 38 38 38 36 36 37 41 38 26 22 22 22 24 32 26 29 32 24 15 32 66 73 84 92 99 100 100 98 99 100
27 32 60 66 84 94 59 64 46 41 38 34 33 34 36 36 40 39 40 42 42 41 42 51 46 51 50 19 20 21 21 22 30 32 31 31 21 17 32 65 72 83 100 99 100 100 100 99 100
27 30 59 52 73 91 70 87 53 36 31 32 31 33 41 48 59 64 56 61 47 44 43 47 51 52 56 25 18 20 25 26 36 38 35 30 18 18 31 66 75 88 97 99 99 98 100 98 100
28 49 69 72 71 94 74 69 40 37 37 32 47 52 68 76 79 81 81 80 83 80 54 53 54 52 56 30 26 21 27 28 42 43 41 32 17 18 32 67 75 94 98 100 100 100 100 99 100
48 67 57 72 90 66 40 36 40 37 37 54 63 69 79 81 84 92 73 56 46 34 43 48 60 61 61 32 29 26 28 29 42 43 44 34 17 17 35 73 82 96 100 100 100 99 98 100 100
49 53 60 50 50 40 32 66 64 51 60 55 66 69 85 98 96 88 60 51 42 36 33 38 43 67 55 30 31 28 30 29 35 41 46 36 17 17 32 66 75 99 98 99 98 99 100 100 100
44 47 48 94 85 87 60 80 70 65 67 72 82 89 87 81 69 63 52 49 43 34 36 33 36 71 48 27 32 30 32 29 32 42 46 36 18 18 24 64 76 96 98 98 100 100 100 100 99
59 60 84 95 96 96 48 58 73 84 78 84 95 81 58 49 58 57 59 52 50 44 39 39 44 44 24 30 34 34 33 33 34 46 47 39 19 18 21 51 70 91 99 100 100 99 98 99 98
67 96 91 96 70 77 69 98 99 92 86 95 66 45 66 76 77 66 57 55 69 65 49 50 72 45 43 43 36 35 36 48 44 51 49 40 19 20 19 35 56 85 97 99 100 99 100 100 100
71 66 76 92 43 77 97 98 99 97 84 65 61 78 96 100 87 70 56 56 99 92 80 80 60 99 86 52 39 36 53 39 58 54 52 38 19 21 20 29 39 85 92 97 99 100 98 100 100

GFSSGP_700_rhum_105.txt.gz
RH
4 4 4 5 8 14 17 6 5 9 10 11 11 12 15 18 20 29 42 52 41 35 32 26 17 14 14 9 9 16 18 19 20 20 26 29 29 43 53 66 82 63 62 73 74 72 67 55 52
6 4 5 7 18 21 22 4 13 12 13 13 10 11 13 18 20 23 38 47 34 33 27 18 16 14 15 12 13 15 15 17 19 20 24 32 43 44 56 70 85 82 66 71 67 66 58 57 50
17 5 5 6 14 18 11 6 13 14 14 11 12 11 11 17 25 21 33 36 29 23 18 16 16 15 14 9 11 13 13 14 16 21 24 32 40 53 62 71 73 71 73 74 80 69 66 58 50
27 12 7 11 12 8 10 8 13 12 15 11 11 13 14 14 21 25 26 27 25 21 17 17 16 16 15 8 11 13 16 17 16 20 24 31 39 47 62 65 68 78 77 78 87 92 74 64 52
31 18 14 9 7 7 8 12 15 16 14 12 14 13 19 20 20 24 29 24 25 24 18 17 16 16 16 9 12 13 16 18 18 20 25 30 37 46 60 62 66 84 86 85 88 92 81 70 48
33 28 31 25 18 13 10 10 12 12 12 14 16 12 17 23 23 22 24 24 29 24 18 18 16 16 17 11 11 12 13 16 20 22 33 37 38 46 58 72 69 78 94 87 72 85 82 86 66
38 32 30 27 24 22 17 14 16 14 11 13 16 16 15 20 31 31 31 30 25 21 19 18 16 16 17 16 11 12 10 9 20 24 37 46 45 57 71 82 87 89 88 81 82 87 80 86 84
43 47 40 37 35 30 22 14 16 16 14 12 15 17 16 17 29 34 36 34 26 20 20 19 17 17 18 18 14 12 13 8 8 23 30 44 55 44 70 80 84 73 73 77 80 81 80 77 80
54 68 54 30 40 33 26 19 13 18 13 14 13 16 16 18 40 47 49 46 33 26 20 20 19 17 18 18 17 13 12 12 8 11 27 37 50 56 50 60 75 78 74 79 82 75 85 76 93
58 64 31 46 36 34 30 26 16 20 19 13 13 14 15 18 42 45 41 39 40 28 22 20 20 18 17 19 18 15 13 13 12 9 11 28 38 54 68 72 76 76 79 83 78 80 84 88 92
38 44 32 38 43 41 33 29 26 24 21 15 14 14 13 15 20 29 42 49 39 31 25 21 21 19 17 18 19 17 18 14 15 11 10 12 27 39 57 70 78 86 87 86 86 81 82 94 92
28 26 34 38 41 39 39 35 30 27 26 19 16 14 15 15 16 18 24 27 29 26 18 22 21 20 19 17 19 18 20 18 17 16 11 10 16 22 32 50 60 83 86 83 78 76 79 83 92
23 15 29 34 48 45 37 37 36 29 27 21 18 18 17 17 17 18 20 22 18 11 12 24 22 21 20 18 18 18 21 23 20 17 12 9 11 22 29 33 46 54 62 67 63 65 79 83 93
25 23 28 32 35 43 44 37 37 31 30 29 20 18 18 17 21 20 23 22 33 64 49 49 37 28 22 20 18 19 21 22 23 23 19 16 10 12 15 23 28 39 49 57 63 69 76 83 91
26 42 44 40 32 35 41 40 37 32 32 31 28 23 19 19 21 25 24 20 26 41 65 62 57 48 34 21 21 19 21 22 23 27 24 22 17 11 13 15 16 27 34 44 59 67 70 80 92
35 34 36 22 36 33 33 38 37 34 34 33 31 28 25 20 18 21 21 18 18 31 37 46 48 52 46 32 21 19 21 22 23 25 30 23 26 22 13 13 13 16 21 32 52 69 74 84 85
35 46 37 34 37 39 33 36 41 40 37 36 32 30 30 29 27 20 19 19 18 23 29 32 37 42 46 45 26 20 20 21 22 23 29 28 26 28 26 14 14 16 18 24 61 79 74 81 93
37 49 46 39 39 39 36 35 38 42 44 38 38 34 32 31 30 30 28 23 20 21 26 31 35 39 44 46 43 22 20 21 21 22 26 33 27 30 30 21 16 18 22 29 46 87 76 85 100
40 46 48 38 30 40 51 46 38 39 42 39 37 35 34 32 32 32 31 28 23 22 24 28 31 34 39 47 41 32 20 21 22 23 25 33 30 29 32 25 16 23 47 46 48 92 85 100 95
46 37 46 42 37 54 51 53 54 46 44 41 34 33 33 31 33 32 32 31 27 23 24 26 26 32 37 44 50 41 24 22 22 23 25 31 33 30 31 24 16 29 61 79 81 86 85 99 93
69 33 32 31 46 64 64 59 56 53 45 42 38 34 32 33 33 33 32 32 30 26 26 27 30 32 32 37 43 41 35 23 22 22 23 30 33 30 29 22 16 25 64 75 77 77 91 94 98
48 29 25 25 42 88 90 87 55 53 59 42 39 37 34 35 36 37 37 37 37 34 30 34 37 41 38 35 36 39 33 25 23 22 23 33 37 30 31 19 17 25 62 70 83 88 96 100 100
68 26 27 22 46 83 99 98 58 68 61 52 50 38 45 46 41 38 38 38 39 40 37 36 40 51 63 58 48 52 41 28 24 22 23 34 36 34 31 17 17 28 63 72 87 92 100 100 100
60 35 44 55 80 91 74 69 58 64 70 44 66 70 68 66 50 43 42 42 41 41 42 42 42 44 48 68 45 47 41 32 22 21 26 35 40 37 25 17 18 33 68 77 92 97 100 98 99
65 47 88 97 98 88 55 85 48 58 60 66 75 83 75 70 64 56 49 43 44 42 42 42 42 46 47 48 56 54 43 38 22 24 29 40 45 40 21 18 19 37 71 81 98 100 98 100 99
54 50 72 79 86 65 52 61 49 59 87 69 71 79 81 83 80 64 57 54 46 45 42 40 39 41 45 46 46 56 54 44 29 25 30 42 47 42 25 18 21 46 65 89 99 99 100 98 100
60 66 54 64 66 78 48 53 66 65 81 99 94 94 84 76 69 69 64 54 44 33 32 28 22 17 31 48 38 62 72 46 40 27 30 37 47 43 27 19 21 44 60 94 98 98 100 100 100
48 49 52 75 91 93 81 89 88 88 97 98 96 81 77 70 64 55 45 39 32 36 38 35 26 25 62 39 40 62 76 54 57 32 29 31 49 43 28 20 20 33 49 94 98 99 99 100 99
56 55 66 81 94 97 96 99 99 99 97 98 64 61 43 35 46 61 63 54 49 47 60 51 41 42 64 54 54 66 75 66 70 38 32 32 51 44 26 21 20 25 34 76 97 98 98 100 99
73 68 85 78 98 98 98 99 99 98 80 56 44 48 68 77 77 68 64 57 53 85 97 100 68 52 57 64 89 87 78 78 68 40 40 44 54 44 25 22 20 24 30 60 86 98 99 100 100

GFSSGP_700_rhum_108.txt.gz
RH
4 4 4 4 4 6 8 2 2 3 13 17 14 14 11 11 14 24 27 32 43 35 33 31 27 18 14 14 11 7 14 16 18 20 28 34 32 30 50 58 66 57 58 69 72 77 78 78 66
14 5 4 6 6 8 4 2 2 7 18 21 17 14 13 11 12 14 18 28 38 22 29 26 20 14 14 14 11 8 12 14 17 21 21 28 32 34 47 56 68 64 62 67 74 76 76 67 58
21 13 6 6 7 7 3 2 3 9 17 18 19 14 13 12 12 13 16 27 38 29 25 21 15 15 14 14 8 9 10 11 13 20 20 24 34 43 43 54 60 61 64 63 64 67 65 62 56
29 21 11 11 7 5 4 4 4 6 13 19 18 14 12 11 11 12 19 28 27 25 22 19 15 15 13 15 8 8 10 13 14 17 20 21 32 38 49 47 66 72 74 77 77 68 58 55 53
35 30 19 14 12 10 8 7 7 11 14 14 13 15 14 11 13 16 15 17 18 21 21 19 16 16 13 16 10 9 10 14 16 17 20 22 26 31 37 51 62 81 85 86 78 74 80 71 59
38 36 27 25 21 16 14 12 9 8 13 13 14 16 14 15 20 23 23 24 22 23 23 22 17 16 13 16 14 9 10 11 17 19 21 25 26 28 35 47 52 61 84 90 75 74 85 78 69
38 38 31 29 29 27 23 18 14 13 14 14 16 16 14 15 22 27 28 28 26 27 23 22 18 17 14 15 16 10 10 8 10 21 26 33 37 35 34 45 55 75 82 94 74 86 82 70 72
37 39 36 34 33 32 27 20 17 18 16 17 15 17 16 15 15 16 17 28 33 30 25 20 19 18 16 16 17 14 10 11 7 16 25 33 42 42 42 56 73 78 82 70 75 80 76 82 75
36 42 34 41 38 33 30 24 19 22 20 19 16 17 16 17 16 21 15 20 37 33 31 24 20 19 17 16 17 17 11 11 11 8 16 25 32 47 42 61 67 63 59 66 79 84 79 82 71
38 39 18 38 32 31 33 28 23 25 23 23 23 15 16 16 17 19 17 19 25 40 36 26 21 20 19 17 17 18 14 12 13 11 9 15 27 37 52 51 51 57 56 65 82 82 81 87 80
15 14 14 20 32 37 35 33 28 30 26 29 26 18 15 14 15 16 17 24 20 34 41 26 23 21 20 18 18 18 18 17 14 14 11 10 14 24 35 50 61 65 69 73 78 83 87 86 94
4 1 8 5 20 28 31 36 32 34 21 32 30 29 16 15 14 14 15 18 20 20 24 33 26 23 21 19 18 18 18 20 17 16 15 11 10 15 22 34 52 63 69 81 78 83 87 84 90
2 1 1 2 12 13 27 33 39 33 25 37 32 27 25 17 15 14 13 15 16 15 18 19 28 24 22 20 19 18 19 20 22 20 17 14 10 11 18 26 30 35 43 59 69 67 72 80 92
9 19 3 2 2 10 25 23 43 30 31 37 34 33 23 20 16 17 17 17 17 18 20 17 12 23 23 22 21 19 19 20 22 23 25 20 18 11 10 12 18 26 27 40 48 57 67 75 87
21 19 18 8 2 22 38 31 32 21 37 38 34 34 32 23 19 18 19 20 18 19 22 18 28 30 30 30 28 20 19 19 22 22 24 28 23 22 13 10 10 13 16 26 34 43 54 70 78
34 31 32 4 22 30 44 42 7 14 39 36 36 34 33 29 24 19 18 19 24 19 18 25 38 59 61 53 47 24 20 20 20 21 23 26 29 25 25 22 14 11 11 13 18 34 49 62 78
38 38 35 28 26 36 38 40 5 16 35 39 37 35 34 32 30 28 22 22 23 20 20 19 34 44 49 51 45 42 33 20 20 21 21 24 30 29 26 27 26 15 12 13 16 22 39 65 80
52 36 32 33 10 31 37 39 23 30 35 39 39 36 35 33 30 28 27 24 24 23 21 19 24 32 34 40 44 46 48 27 21 21 21 23 26 33 28 29 30 27 16 15 20 22 31 61 81
88 58 46 32 19 45 42 30 43 45 35 36 39 38 38 37 32 29 28 28 27 28 23 19 20 27 32 36 40 44 43 44 25 22 22 23 25 30 34 30 32 32 18 17 32 42 37 56 94
38 62 78 54 42 40 50 45 23 49 45 35 38 38 38 36 33 30 33 33 32 28 25 20 21 25 28 34 33 39 48 44 43 29 23 23 24 27 34 34 34 36 20 18 40 72 55 52 96
47 35 64 76 49 40 51 61 52 45 50 46 38 38 42 40 37 37 35 33 32 31 30 23 22 23 27 30 29 34 56 51 39 37 27 23 23 24 35 35 34 37 21 19 37 76 80 76 87
68 40 55 76 61 38 42 70 57 46 42 44 46 44 46 50 45 41 37 35 35 34 34 26 23 28 30 37 44 36 39 39 38 34 32 25 24 24 34 33 35 36 21 20 40 72 83 86 77
46 44 67 67 52 31 37 82 55 52 49 40 44 49 54 58 51 44 38 44 38 34 30 28 25 32 29 43 55 64 53 53 45 43 34 26 25 24 31 35 38 32 20 23 45 68 80 85 89
51 52 57 68 34 54 40 74 58 48 49 71 72 66 61 66 53 56 49 44 40 34 31 29 31 29 33 34 38 51 69 61 53 49 39 28 25 24 29 39 39 25 20 28 54 77 83 87 97
42 49 81 75 83 76 55 71 63 79 82 76 86 70 74 71 58 59 56 53 43 41 42 41 43 44 39 35 37 39 52 62 58 48 44 28 24 26 34 43 40 21 21 30 61 76 85 95 99
70 57 61 94 90 79 70 80 83 93 98 100 96 88 76 70 68 66 69 64 56 47 44 42 42 47 57 60 52 45 43 48 59 52 42 31 27 30 41 47 42 22 21 30 64 70 95 99 100
60 72 54 60 80 70 76 84 100 100 94 99 99 98 87 89 76 71 63 54 49 45 41 38 40 42 45 49 51 54 47 50 53 51 47 37 30 32 42 49 42 23 22 32 50 82 93 99 97
72 63 61 70 78 87 73 74 99 98 100 100 98 100 100 99 93 77 64 54 48 46 44 41 39 39 38 38 37 36 37 54 61 53 52 43 32 38 38 49 42 24 23 32 41 83 96 98 100
72 68 60 61 66 96 96 98 98 98 98 92 97 99 95 67 57 53 46 39 28 26 24 24 24 24 24 28 28 29 29 59 59 63 65 52 40 42 38 48 44 24 24 29 39 82 99 100 99
78 70 61 67 79 92 96 97 98 97 99 97 94 98 99 71 71 68 58 48 42 39 38 34 46 53 48 40 36 45 56 66 68 70 65 55 57 44 44 49 43 24 23 30 48 81 97 100 99

GFSSGP_700_rhum_111.txt.gz
RH
12 5 3 4 5 5 4 2 2 2 6 20 16 16 17 19 19 24 20 29 33 34 37 36 31 19 15 14 14 13 9 13 16 18 28 36 37 37 34 38 49 54 51 53 58 64 71 75 78
17 15 6 5 6 8 4 3 2 2 7 19 17 16 18 17 19 20 24 26 37 34 36 36 24 17 14 14 14 12 9 12 15 18 19 20 29 34 30 40 50 53 52 58 62 67 73 75 73
26 22 15 6 6 8 5 5 3 3 5 16 18 19 17 15 14 14 19 26 27 32 36 28 23 15 14 13 14 10 9 11 13 14 18 19 20 30 31 36 46 55 58 60 65 67 71 73 65
30 28 21 15 10 7 6 6 4 4 5 15 19 18 20 16 13 12 11 14 20 27 28 21 20 16 14 12 15 10 9 11 13 13 16 19 19 27 32 37 48 62 64 65 69 72 68 62 58
33 32 26 24 20 16 12 9 8 7 9 16 15 14 14 17 15 12 12 15 20 22 22 22 22 17 14 12 16 11 9 11 15 15 16 20 20 23 33 44 51 61 59 71 77 79 78 68 68
35 33 30 28 25 23 21 16 13 13 9 11 14 16 14 15 15 14 14 20 22 24 26 24 23 18 15 13 16 14 9 10 12 16 16 19 22 23 31 37 52 55 68 85 85 82 78 75 78
37 36 33 31 30 29 26 24 20 16 12 10 17 18 18 21 16 17 21 25 26 26 26 26 22 19 17 15 15 16 10 10 7 12 18 22 28 28 29 36 49 59 62 72 72 67 69 82 77
35 38 36 35 36 33 30 25 25 22 15 14 18 21 16 17 18 22 28 26 24 30 30 26 24 22 19 16 15 16 14 10 10 7 16 23 30 37 37 35 45 59 70 74 78 67 77 84 74
30 35 25 35 36 28 30 26 26 25 23 18 17 26 20 19 16 18 22 17 17 18 25 30 26 26 20 18 17 16 17 12 10 10 8 17 26 37 44 40 48 66 78 76 68 77 78 77 77
17 17 17 22 21 21 23 28 30 29 25 23 19 26 18 17 18 18 18 16 14 18 21 25 32 26 21 20 18 16 17 15 13 11 10 10 20 33 48 45 49 67 68 62 67 75 79 72 64
3 2 6 8 9 7 12 31 36 28 24 27 24 27 23 38 24 19 18 17 16 17 24 29 32 30 28 21 20 18 17 18 18 12 12 10 10 20 32 41 48 48 51 56 64 75 86 80 64
1 1 1 2 2 7 19 26 29 26 18 33 27 30 30 57 53 29 20 16 15 18 32 36 36 31 30 24 21 19 17 19 20 17 15 15 11 11 18 29 44 59 66 73 77 84 89 89 75
2 2 2 2 2 4 13 12 28 11 12 30 35 30 30 35 49 64 36 27 15 29 31 28 32 26 29 26 21 20 18 19 20 22 21 18 14 10 11 20 28 39 58 63 71 81 80 78 73
9 4 3 2 3 12 18 3 12 1 4 18 31 33 31 34 31 53 56 38 20 28 23 21 20 20 26 26 23 21 20 19 20 22 23 25 22 18 11 11 18 28 35 42 53 68 73 67 70
21 20 10 3 8 18 28 22 9 7 8 7 22 33 32 35 35 32 46 42 22 19 19 20 19 21 18 27 24 23 23 20 20 22 22 23 27 24 21 13 11 13 18 27 36 42 46 51 64
36 35 38 10 23 25 30 33 9 19 24 6 10 32 33 32 34 29 50 47 31 27 24 20 21 20 21 29 25 34 40 23 21 22 22 22 24 29 25 23 21 15 12 13 18 22 29 38 51
51 51 44 27 16 24 27 26 11 35 36 29 6 23 36 34 35 32 36 38 32 31 28 20 20 18 22 38 67 62 55 40 28 22 22 22 23 24 31 27 26 26 23 16 13 15 18 24 43
71 74 75 70 51 52 35 28 21 19 31 36 19 14 29 39 36 34 33 30 30 33 26 20 20 20 20 45 56 55 46 41 47 29 22 22 22 24 26 33 29 28 28 28 16 15 19 23 37
67 57 53 51 51 44 62 50 38 19 37 32 26 15 30 40 39 35 34 34 32 30 27 26 22 21 19 23 37 42 43 45 45 44 32 23 23 24 25 30 36 32 32 33 22 17 24 38 34
39 41 58 52 49 55 56 70 46 30 53 30 48 23 24 38 42 38 36 34 32 32 32 31 28 25 20 20 26 32 36 41 45 44 44 43 27 25 25 27 35 39 37 36 30 18 22 48 57
45 84 79 77 60 47 59 87 42 45 59 31 44 58 44 35 40 43 40 35 32 32 32 32 31 31 26 20 22 29 37 45 52 52 42 39 41 40 27 26 31 39 39 38 37 21 21 47 77
82 65 85 79 57 65 55 67 41 43 46 33 30 50 58 49 37 40 43 41 38 36 34 34 33 32 27 22 23 28 30 37 35 42 42 50 43 36 37 28 29 38 41 40 40 24 22 46 76
72 58 56 63 71 96 67 77 46 48 58 56 45 45 51 52 45 44 44 42 40 41 36 33 33 30 27 22 24 27 35 46 62 73 61 48 40 41 37 27 28 33 40 43 40 24 24 43 70
36 51 63 67 78 95 64 55 38 49 56 58 63 48 46 52 57 50 48 45 44 44 41 34 33 32 30 26 26 36 38 48 56 86 68 54 49 45 38 27 26 30 40 42 34 22 26 48 74
46 55 72 94 97 81 42 51 43 71 73 67 70 69 58 53 67 55 56 50 46 47 44 38 34 35 32 31 29 36 37 43 51 62 53 53 48 44 39 29 26 30 43 44 26 21 23 48 76
65 77 83 94 94 75 59 84 100 99 100 99 99 99 94 82 71 79 76 77 68 71 62 50 43 34 33 30 29 33 39 40 40 43 48 52 46 45 45 32 26 31 46 46 27 20 22 44 71
70 75 63 94 82 98 82 99 97 98 99 100 95 99 99 91 92 81 83 76 72 69 69 69 64 51 50 48 44 43 42 45 49 55 58 55 55 53 51 43 32 36 46 47 29 20 20 36 83
80 78 90 95 96 88 78 97 97 97 97 98 98 99 100 100 96 95 88 74 70 67 66 58 52 50 48 49 53 54 53 52 50 52 54 54 56 58 59 54 37 39 48 48 30 21 21 38 93
88 78 83 86 76 97 95 97 97 97 96 97 98 98 100 99 100 97 92 81 74 72 69 63 52 48 46 44 42 39 38 38 38 42 48 56 61 64 66 60 47 43 50 48 33 21 21 41 98
91 98 79 66 81 90 93 98 94 97 98 97 97 97 94 98 99 99 98 84 63 52 52 47 38 32 32 32 32 32 30 29 31 47 57 59 65 69 73 68 59 47 54 49 36 21 22 47 91

GFSSGP_700_rhum_114.txt.gz
RH
14 13 10 5 4 5 4 3 3 2 2 18 19 18 16 18 20 22 22 15 25 27 38 35 33 26 18 14 12 12 13 11 12 14 16 20 25 30 34 33 30 33 47 46 44 52 63 67 72
23 21 16 11 7 6 5 4 4 3 3 5 18 20 21 21 25 28 20 21 29 36 39 37 30 21 16 13 11 13 12 10 12 14 16 18 20 24 30 33 28 36 47 49 53 58 64 71 76
28 28 26 16 10 8 6 7 5 4 4 4 15 19 19 17 18 19 20 22 27 31 36 36 26 18 15 12 13 14 10 8 10 12 15 17 18 18 23 28 31 42 53 58 64 67 70 74 75
32 32 31 22 16 12 10 8 6 5 5 6 12 18 18 18 17 18 24 23 29 22 29 25 20 19 15 12 14 15 10 9 11 12 13 14 17 15 23 30 38 50 62 64 66 68 67 66 68
36 35 32 29 25 22 20 17 13 11 10 9 13 17 16 16 17 18 20 15 22 19 22 23 23 22 16 13 13 15 11 8 11 14 14 14 17 17 24 30 39 49 57 62 69 70 73 71 62
38 37 35 33 30 28 26 24 21 18 15 10 12 11 15 14 14 19 21 15 18 23 26 25 24 21 18 15 13 15 14 9 9 12 15 16 19 21 24 30 37 51 56 67 71 72 73 76 77
35 37 35 35 35 34 33 29 27 24 23 16 17 15 13 17 17 31 28 24 24 25 26 26 26 21 18 17 15 14 16 11 9 8 13 18 23 25 27 30 32 52 57 64 66 74 66 64 72
23 34 39 38 38 37 32 28 28 28 24 25 21 22 16 17 17 26 38 34 30 29 29 29 28 22 23 19 16 15 16 15 10 9 8 17 25 31 33 34 37 49 61 62 67 73 65 64 73
9 20 28 34 23 29 31 28 20 22 28 30 27 24 22 19 19 24 41 38 30 27 28 27 27 26 25 20 18 17 15 16 13 10 9 10 19 28 38 42 40 52 63 68 75 69 64 68 73
2 2 6 3 10 15 21 23 12 11 16 27 31 31 29 23 21 27 45 33 22 16 21 20 27 28 27 21 19 18 17 16 16 14 11 10 12 21 33 46 46 54 69 84 82 68 63 67 75
1 2 1 2 4 12 15 14 16 5 4 25 25 32 32 26 25 21 48 44 18 17 20 25 25 29 30 26 24 20 18 16 17 18 12 12 10 10 21 34 44 48 68 69 72 68 74 78 79
2 2 1 2 2 3 6 5 4 2 4 10 20 29 32 34 27 28 55 53 40 24 26 28 30 37 32 27 27 22 20 18 17 20 17 15 14 11 11 20 37 52 56 60 68 75 82 91 89
3 3 2 2 3 3 2 3 5 2 3 3 4 10 27 36 36 40 55 61 50 36 29 41 39 43 37 31 26 23 20 19 17 19 21 21 17 14 10 12 22 39 56 69 76 85 90 96 92
10 7 6 6 8 10 11 5 6 5 9 5 3 3 11 29 36 38 61 72 58 46 47 49 46 41 41 31 28 24 22 21 19 19 21 22 25 21 17 11 13 22 34 48 69 75 91 94 84
12 11 10 8 14 14 19 9 9 9 12 18 8 5 4 15 32 36 36 59 69 55 56 59 50 38 25 23 26 25 24 24 21 20 21 22 23 27 24 19 12 12 18 28 36 44 60 65 60
29 35 31 14 28 21 34 30 11 16 13 16 17 6 8 6 22 35 37 36 58 69 64 66 54 40 24 21 21 28 26 25 25 22 21 22 23 23 28 26 22 18 14 13 16 23 33 40 43
57 56 58 23 21 24 45 49 22 40 31 22 16 17 11 6 7 32 36 36 36 57 63 67 60 33 23 20 24 28 27 33 53 30 23 22 23 23 23 29 27 24 24 23 17 16 18 22 27
43 50 52 47 17 34 60 50 41 35 39 47 28 15 16 17 5 25 39 35 34 42 66 61 56 28 21 20 36 28 30 59 55 48 46 26 23 23 23 24 30 31 27 27 28 25 18 19 23
42 62 62 48 41 52 42 56 52 53 32 34 40 15 11 22 20 23 38 36 36 45 77 69 59 29 24 22 23 26 27 41 49 42 49 46 25 24 24 25 27 29 34 32 32 32 22 18 21
53 51 56 53 40 66 75 70 55 45 28 36 44 14 13 13 31 34 39 39 36 34 34 38 54 30 27 24 25 35 43 50 40 45 47 48 50 41 28 27 27 30 33 39 35 33 33 20 21
59 70 58 53 65 76 85 56 48 27 32 44 32 36 25 39 50 31 41 40 37 36 35 33 32 29 32 33 30 30 28 34 36 38 44 50 48 43 46 45 40 31 33 38 43 38 37 28 22
73 40 58 68 87 95 70 85 70 43 35 40 48 55 44 41 51 39 36 45 40 38 35 34 33 31 30 29 28 28 26 27 30 34 43 44 50 52 51 42 36 38 32 32 42 44 41 37 22
33 54 60 59 67 92 76 92 64 47 41 47 64 69 44 39 50 59 36 38 43 41 40 37 36 34 33 33 32 32 24 26 29 31 46 62 63 66 44 41 43 39 32 29 33 45 43 36 24
40 50 48 54 74 98 59 78 59 87 98 97 92 56 49 53 58 62 53 35 39 43 42 40 39 36 35 34 34 33 32 25 31 32 39 74 85 72 53 49 48 43 32 29 29 43 49 39 24
66 66 85 83 94 86 60 73 94 100 99 100 98 78 66 59 70 68 60 49 43 45 43 40 38 38 38 36 36 34 35 29 27 30 41 49 70 75 48 56 49 42 34 30 32 39 48 41 23
81 79 88 94 94 89 85 83 98 97 98 98 100 99 100 96 74 82 80 64 53 51 50 49 45 40 40 41 39 37 36 31 29 35 36 46 56 59 52 52 48 47 38 30 29 36 50 44 24
74 82 93 97 85 97 97 97 96 97 96 97 98 99 99 99 100 97 98 88 74 66 70 64 55 48 48 45 43 40 36 37 34 36 39 47 52 54 58 57 56 56 49 37 32 37 49 46 26
81 88 97 94 96 92 90 97 97 95 96 97 96 98 99 100 100 100 100 98 98 83 83 84 78 75 64 54 48 47 47 41 36 42 42 48 50 57 58 61 60 60 57 54 40 40 50 48 29
79 86 96 98 94 96 96 97 97 96 95 96 96 96 97 98 99 100 97 93 89 84 84 81 76 69 65 62 62 57 52 51 49 49 50 52 52 53 59 58 57 56 62 59 52 40 53 50 31
89 79 94 97 88 96 97 97 97 96 95 96 96 96 96 97 98 99 99 94 84 84 89 74 71 64 62 59 55 52 50 47 45 43 41 38 41 46 57 62 60 61 67 68 58 43 53 51 32

GFSSGP_700_rhum_117.txt.gz
RH
22 19 16 15 8 5 4 3 3 3 4 16 20 13 16 20 21 19 23 21 14 25 23 25 32 33 23 16 13 12 13 13 12 12 16 18 20 27 34 34 32 31 37 47 46 48 57 67 70
27 27 26 22 12 7 6 7 6 4 4 4 4 6 20 20 23 22 22 20 21 27 27 34 36 31 20 14 12 13 13 10 10 11 14 15 18 21 29 32 33 31 42 50 49 51 59 68 71
33 30 32 29 18 14 11 11 9 7 5 4 4 12 19 22 22 22 20 24 22 24 34 38 35 23 17 13 12 14 12 9 9 10 12 14 16 19 21 25 30 35 49 54 56 64 69 74 77
36 35 34 31 22 18 14 12 10 9 8 6 5 11 16 17 17 19 21 26 28 30 34 37 28 21 18 13 12 15 13 9 9 10 12 12 14 18 18 26 33 38 51 56 61 64 68 68 71
36 37 37 35 32 29 26 24 22 20 19 16 13 8 12 16 17 18 28 32 32 30 28 28 22 21 18 14 13 14 14 11 9 10 13 14 14 18 19 28 36 41 51 58 61 63 67 69 67
30 34 38 36 35 33 32 30 27 24 24 24 24 20 13 13 16 16 21 42 31 29 26 24 24 22 18 17 14 14 14 14 9 8 11 14 16 20 23 31 42 47 51 57 59 69 72 75 72
17 34 36 36 36 36 32 27 27 27 29 29 32 30 22 15 14 17 16 42 34 28 28 28 25 24 19 18 16 15 14 15 11 8 8 14 18 22 25 32 41 50 57 56 64 76 77 65 65
2 15 36 37 33 25 18 16 15 20 23 26 31 33 30 24 16 18 24 47 42 29 31 30 27 28 22 20 17 16 15 16 13 9 8 12 18 26 28 32 36 44 55 56 62 70 77 63 62
1 6 15 11 13 13 18 15 4 8 12 15 24 35 36 32 26 20 20 48 47 32 32 30 29 28 25 23 19 18 17 15 15 13 9 8 15 25 33 37 38 40 48 55 62 75 72 65 68
2 2 3 10 8 9 12 10 6 5 5 7 9 17 26 34 30 23 22 35 47 36 34 33 30 29 27 24 20 18 18 16 16 17 11 10 9 20 33 43 44 42 46 54 66 78 63 62 76
2 2 2 2 4 5 7 6 13 9 2 2 2 4 10 27 33 27 25 28 59 46 33 34 32 28 29 27 22 22 20 18 16 18 14 11 10 10 22 35 42 42 45 56 75 77 64 67 73
3 2 3 3 3 3 4 5 4 4 4 2 2 3 6 17 38 33 27 31 57 59 31 33 34 32 32 32 24 25 22 20 18 18 18 14 12 11 11 23 34 43 47 57 69 68 66 72 78
5 5 5 6 8 7 6 6 7 6 6 4 2 2 2 4 11 35 29 35 50 66 35 35 35 35 34 36 28 26 24 21 19 18 20 20 17 14 11 13 22 33 43 55 62 66 71 79 83
7 6 8 8 8 9 11 7 7 8 11 9 6 3 2 2 3 9 36 31 47 62 51 37 34 37 34 35 35 27 24 23 21 19 20 21 24 21 16 12 13 22 30 47 58 67 79 82 76
14 13 12 11 14 14 18 7 15 10 14 14 12 8 3 3 3 3 22 34 45 59 63 40 36 38 37 40 41 33 27 24 24 21 20 22 23 26 25 18 13 14 21 29 32 40 51 46 50
24 20 21 28 26 23 32 14 22 14 25 24 23 22 7 2 4 4 4 36 43 58 68 48 39 39 37 48 46 27 30 27 26 25 22 22 23 24 26 26 20 17 14 13 14 19 27 28 30
37 44 38 26 29 37 59 56 11 26 24 24 22 22 22 8 3 5 8 16 37 46 66 65 47 45 45 55 52 27 32 36 27 28 27 22 22 23 24 26 28 24 22 22 21 18 16 17 20
46 49 43 38 18 34 43 49 34 17 27 30 29 19 19 17 4 4 7 8 32 38 51 67 69 56 58 62 56 28 28 29 29 29 46 28 23 22 24 24 25 29 29 26 26 27 26 23 19
49 55 52 25 34 44 42 56 36 36 30 34 27 24 29 24 20 9 6 10 20 39 37 52 66 70 71 71 46 26 28 27 29 48 56 44 45 27 23 25 26 26 27 34 32 31 30 30 25
50 59 38 28 27 57 35 37 42 36 36 38 43 30 28 31 31 16 8 8 11 39 36 35 53 69 80 80 38 42 52 38 36 62 57 48 45 48 28 25 27 27 28 29 35 39 37 35 36
34 42 34 43 38 41 55 59 57 57 51 54 50 42 34 40 33 24 19 16 16 40 37 35 40 65 79 88 51 53 50 51 64 62 52 45 49 50 47 43 37 34 31 29 32 37 43 42 40
38 35 37 39 64 67 73 76 61 75 91 73 69 73 68 42 42 54 45 32 30 39 38 47 60 63 80 92 61 45 42 38 40 50 49 40 46 51 55 50 52 46 40 37 35 35 39 45 43
36 42 58 62 69 88 48 92 66 76 87 96 98 98 84 62 57 79 52 63 43 42 40 38 42 70 82 65 60 44 44 44 40 31 36 39 39 51 58 64 56 47 40 38 37 38 36 39 48
56 61 67 61 72 85 73 86 70 96 98 94 96 98 100 96 59 59 60 68 48 47 44 40 37 36 38 49 48 47 38 36 34 33 26 30 33 51 74 69 66 49 45 43 44 37 34 35 40
72 81 72 68 76 65 90 97 99 97 98 96 96 96 98 100 89 63 88 62 53 40 44 44 41 37 34 34 34 34 32 32 32 34 33 27 30 37 61 59 67 68 54 49 43 37 32 33 34
86 88 81 89 67 74 91 94 96 97 97 97 96 96 98 98 100 94 100 71 53 41 40 41 43 42 41 39 38 37 38 40 39 37 35 32 32 37 52 48 69 87 60 51 49 44 34 31 31
86 87 90 98 98 94 98 95 97 94 96 96 97 96 98 99 99 99 97 98 69 49 40 47 44 44 42 40 39 39 39 41 41 40 35 33 36 38 43 51 66 85 60 55 57 55 47 30 29
88 90 97 98 90 78 93 96 99 92 95 96 95 96 96 98 100 99 100 99 100 94 67 55 50 50 46 44 42 42 45 46 46 46 40 45 46 54 52 57 62 65 64 63 62 58 54 53 48
88 94 97 97 95 90 87 95 98 96 96 96 96 96 96 97 98 100 100 100 100 99 99 90 72 62 59 59 56 56 55 55 54 50 48 50 51 60 64 64 58 64 69 70 62 60 56 54 59
83 97 99 97 88 99 97 97 97 96 96 96 96 96 96 96 98 98 98 99 100 95 93 95 90 84 79 74 71 66 63 60 56 56 53 52 52 58 57 60 60 66 70 72 72 68 60 65 67

GFSSGP_700_rhum_120.txt.gz
RH
26 25 25 22 21 13 9 7 6 6 7 4 8 17 12 19 22 30 28 26 22 18 22 24 21 32 30 23 17 13 12 15 16 19 22 26 26 27 32 33 31 33 35 45 48 50 54 62 68
31 30 30 32 20 12 9 8 11 10 6 6 5 4 12 21 23 24 24 23 21 18 26 22 25 32 27 19 13 12 12 12 12 14 18 20 22 27 32 34 34 32 38 48 50 50 55 62 67
35 35 35 28 23 18 14 12 11 9 7 5 6 6 12 20 24 21 20 20 25 26 26 23 32 31 20 16 12 12 13 10 10 12 16 17 19 23 29 33 35 35 45 52 53 57 64 67 72
33 36 36 33 25 21 18 15 15 16 11 10 14 12 13 15 16 18 18 23 24 30 26 31 33 24 20 16 12 14 13 10 9 11 14 15 17 20 23 30 33 38 50 54 56 63 69 70 72
29 36 34 31 28 28 28 26 24 23 25 24 25 24 24 22 13 16 18 29 26 26 30 31 29 22 20 15 13 14 14 12 9 11 14 15 15 19 22 27 34 39 50 60 63 64 66 68 66
24 24 29 25 23 28 26 26 29 27 30 31 31 31 28 27 18 14 18 36 36 37 36 34 26 23 19 16 15 14 14 14 10 10 15 16 17 19 20 25 34 37 51 61 64 65 69 72 72
8 25 21 21 24 25 28 29 29 30 33 32 36 34 32 34 20 15 17 28 44 45 30 29 25 24 21 18 16 15 14 15 11 9 12 20 18 20 22 25 32 37 47 56 61 70 76 80 70
2 25 20 23 21 17 22 21 19 26 30 23 37 33 37 35 27 22 17 24 48 48 26 26 26 25 22 20 18 16 15 15 14 10 9 19 28 24 25 27 32 37 44 53 58 72 75 74 65
1 18 16 14 21 18 25 34 17 17 5 14 22 43 45 28 27 26 19 21 47 50 33 23 29 26 24 22 20 18 17 16 15 13 10 12 21 24 28 29 34 37 42 51 57 64 74 71 65
2 15 15 19 24 31 25 12 4 3 3 4 6 16 22 20 21 26 26 21 35 57 50 23 30 28 25 24 22 19 18 17 16 16 12 10 28 26 30 32 37 40 43 49 57 65 76 68 69
8 9 10 20 18 5 6 7 11 3 2 8 4 2 2 4 7 15 27 23 22 55 59 39 24 27 26 23 22 20 19 18 17 17 16 11 16 33 28 29 34 40 41 46 52 68 78 66 68
3 6 4 6 7 5 4 8 6 4 3 2 2 2 2 2 2 22 24 30 25 28 52 59 24 26 26 24 22 21 22 20 18 17 18 14 11 15 22 21 29 41 43 50 58 78 75 68 68
5 9 6 6 7 7 7 5 6 11 8 4 2 3 2 2 2 2 34 33 32 29 40 61 41 24 26 25 24 22 24 24 20 18 19 18 15 13 12 15 20 34 40 49 57 71 66 66 72
9 8 9 9 13 12 10 12 26 22 24 26 22 5 3 2 2 2 2 31 35 36 39 60 56 26 27 26 26 24 22 24 22 20 20 21 20 16 14 12 14 21 33 44 54 59 64 67 73
9 10 20 26 25 20 24 14 21 23 29 35 32 30 17 3 2 2 3 2 25 35 47 49 65 30 28 28 27 24 23 23 23 23 20 22 23 23 20 16 13 14 20 31 37 42 46 50 56
23 24 27 26 28 32 35 21 27 30 36 35 34 35 33 13 4 3 4 3 2 18 40 55 65 50 30 29 30 25 24 24 25 24 23 21 23 24 26 24 19 15 13 16 17 21 37 27 30
31 26 25 25 29 33 39 29 18 27 30 32 32 33 35 36 25 5 6 10 2 4 22 45 60 70 37 32 31 29 26 28 28 27 26 24 23 23 24 27 26 22 19 18 18 18 18 16 18
26 30 29 29 28 36 34 35 34 36 36 38 41 44 46 41 38 37 7 18 25 3 6 36 52 69 59 37 33 32 30 38 36 34 29 28 25 23 24 25 27 28 26 25 23 24 24 24 29
34 43 40 37 38 42 42 39 39 41 45 49 52 50 50 49 46 41 34 11 26 7 4 15 42 54 69 43 36 34 35 45 27 37 36 30 28 25 24 24 25 26 26 28 30 29 28 29 29
50 52 47 38 42 43 38 43 39 45 62 97 74 75 58 47 53 52 48 39 50 25 3 7 36 44 57 54 38 36 46 52 28 52 39 30 47 31 29 26 25 25 26 26 26 28 34 36 35
60 52 46 44 48 49 46 38 39 61 92 57 54 56 54 63 64 56 45 40 28 21 7 6 25 42 44 62 43 42 57 59 31 45 40 41 53 48 47 46 30 27 27 26 28 28 30 33 39
60 47 46 48 55 49 55 54 48 74 84 58 56 64 73 77 84 86 62 38 38 26 9 14 17 41 40 54 62 52 68 52 30 31 34 53 60 51 48 50 47 43 36 33 37 37 34 34 32
56 61 60 62 67 64 47 52 43 86 74 62 66 74 96 96 97 100 79 62 56 29 18 31 20 35 40 43 68 60 70 70 60 49 61 72 70 57 54 54 53 51 50 48 44 40 39 40 42
74 77 72 67 66 56 54 78 58 98 100 85 81 79 94 96 98 98 100 100 85 76 41 50 36 38 39 47 58 76 83 72 44 47 52 59 53 57 62 69 76 71 60 54 49 42 44 45 46
79 74 51 52 62 34 54 74 99 93 93 95 94 91 93 96 99 99 100 100 81 97 72 59 42 41 57 66 68 76 72 59 52 45 38 37 40 44 38 40 45 83 69 66 57 54 47 45 43
74 78 60 82 58 53 62 70 100 96 85 95 96 96 96 96 100 100 98 100 100 94 80 70 48 41 64 80 82 81 90 80 51 48 40 38 32 31 31 33 42 82 86 84 80 78 62 48 45
74 72 78 86 76 84 78 98 96 75 86 93 94 96 96 97 97 98 100 100 97 79 73 90 69 49 42 40 68 67 53 47 45 42 36 35 33 33 36 33 38 50 76 74 74 80 79 53 56
83 90 78 90 88 76 78 95 98 88 91 93 93 94 96 95 98 99 99 100 99 94 76 82 97 76 51 47 50 42 38 37 36 38 41 43 43 41 38 40 46 56 56 65 78 82 86 71 66
76 89 94 89 78 79 72 95 100 95 98 95 96 96 96 95 96 99 100 100 100 100 99 98 81 71 59 54 48 47 45 41 40 41 42 45 45 52 47 46 52 55 61 67 82 99 98 87 74
71 87 98 96 76 88 96 96 88 99 97 96 97 96 96 96 96 97 100 99 100 100 99 98 92 81 72 60 56 52 50 49 57 53 50 50 54 60 57 60 64 66 69 75 75 81 86 79 76

GFSSGP_700_rhum_126.txt.gz
RH
26 25 26 24 31 23 15 10 7 7 8 12 12 9 8 8 12 23 45 41 38 27 21 17 18 17 16 32 25 22 15 12 12 10 11 19 26 31 29 32 29 36 38 48 53 58 57 63 69
24 25 29 31 31 19 12 10 8 9 10 10 10 10 10 15 22 28 31 35 34 29 17 16 21 18 17 30 21 19 14 11 12 9 11 17 24 27 31 33 34 38 36 48 52 52 53 59 66
23 28 31 36 29 23 16 14 12 11 10 11 11 14 13 13 19 30 34 17 22 22 17 19 23 18 20 28 19 16 13 12 12 9 11 14 19 26 30 34 34 39 40 51 54 55 57 59 66
14 32 31 31 26 21 19 17 14 16 17 16 16 17 18 19 20 36 19 15 18 22 21 27 25 19 23 22 18 16 12 13 12 10 10 13 15 19 25 31 32 38 41 50 56 58 64 66 71
10 29 34 30 25 22 19 18 20 21 21 21 23 23 24 27 34 46 30 13 18 20 25 34 27 19 25 19 19 16 13 13 12 10 10 12 14 16 20 26 27 35 42 52 58 63 68 71 70
27 29 25 20 17 15 14 19 20 21 20 22 23 26 28 31 36 44 32 14 17 17 27 34 26 21 24 20 19 15 14 14 13 11 10 12 15 15 17 21 25 36 39 52 61 65 70 68 66
22 26 21 18 16 15 13 14 15 19 21 20 26 29 30 32 36 42 39 30 12 16 24 28 27 24 23 20 20 16 15 14 14 12 10 11 13 23 20 19 25 31 40 48 62 65 63 66 69
20 20 18 17 17 13 14 16 17 21 26 26 27 27 28 34 35 40 42 33 24 14 18 37 32 23 22 21 21 18 16 15 14 14 11 10 14 20 17 19 26 28 35 46 57 60 58 70 72
7 16 14 10 10 11 15 18 20 27 26 16 16 15 20 27 24 27 38 33 29 21 16 24 42 26 23 21 22 19 17 16 15 15 13 10 10 16 21 19 22 26 34 43 52 57 64 66 68
12 13 12 10 10 10 14 16 16 14 8 10 10 10 12 17 18 12 8 11 25 25 30 24 44 48 29 22 22 21 18 17 16 16 14 13 10 12 20 19 22 26 32 37 44 54 57 63 68
15 13 12 11 11 11 11 8 10 8 4 4 4 3 3 4 6 6 5 3 2 13 24 38 29 56 63 26 22 22 20 18 17 16 15 15 13 10 19 19 22 24 28 31 36 44 52 63 70
15 16 18 15 14 13 7 12 12 16 10 10 7 7 7 7 12 16 19 19 8 3 4 19 41 30 67 71 29 23 21 19 18 17 17 16 15 11 21 32 35 28 28 34 35 40 53 60 68
15 16 16 16 12 16 18 20 20 18 17 20 20 20 20 20 21 23 22 21 20 10 3 2 31 40 43 75 64 25 23 21 19 18 18 17 17 17 24 48 38 36 29 33 39 40 48 59 68
13 20 8 6 19 21 20 20 19 16 19 19 18 19 21 22 24 26 26 28 29 27 9 4 6 47 31 52 73 42 26 23 20 19 19 18 18 17 25 32 32 26 23 29 38 40 47 62 66
23 14 19 21 19 18 20 19 19 18 17 20 24 23 22 22 23 24 25 26 28 29 29 9 11 19 51 32 66 71 30 26 23 21 20 19 19 18 20 30 25 25 25 22 30 35 42 54 57
22 26 24 17 15 16 19 20 18 18 21 24 25 27 30 32 35 35 33 33 35 36 35 33 15 15 32 62 56 78 56 34 24 23 21 20 20 20 18 23 22 19 13 19 20 23 29 40 48
20 20 17 14 15 17 19 20 19 20 22 26 33 42 40 35 27 20 21 28 19 38 38 34 32 18 18 41 51 69 82 50 26 24 23 22 21 21 20 21 25 18 15 13 13 16 25 28 27
19 18 16 18 19 20 23 22 22 22 24 35 43 40 33 31 38 39 37 34 30 25 28 32 34 34 27 26 45 44 79 75 43 25 25 24 23 22 22 21 23 23 22 17 15 14 20 26 19
28 22 23 25 26 24 26 24 22 24 33 43 44 37 35 41 37 35 35 34 34 33 29 25 27 34 37 31 28 38 39 92 63 33 26 26 26 24 22 22 22 24 24 22 19 18 19 20 23
28 30 30 29 28 25 25 24 26 27 48 46 50 47 49 42 38 37 37 41 42 42 39 31 29 25 19 35 37 59 52 76 82 45 29 26 27 27 26 23 22 24 24 25 24 24 24 25 26
29 31 30 33 30 30 29 25 21 37 54 54 68 57 48 43 38 41 46 47 54 54 52 45 35 36 26 12 38 56 46 69 98 69 35 31 25 30 30 27 23 24 24 23 26 26 27 28 28
32 34 33 36 40 38 36 42 36 37 75 73 56 52 47 41 42 50 55 55 59 60 60 52 31 43 45 25 23 35 47 65 97 86 44 37 28 28 31 31 29 25 24 24 24 26 25 29 27
42 42 47 46 47 46 44 34 53 62 71 60 56 48 43 48 55 64 64 69 66 61 57 56 33 46 50 38 30 28 70 62 77 98 69 48 38 29 32 36 34 32 27 24 25 26 26 26 28
50 50 50 45 39 47 39 50 95 89 87 68 50 46 55 63 68 72 75 76 75 70 63 64 66 44 58 38 17 22 67 55 98 92 100 54 34 30 34 44 45 35 35 32 34 32 30 32 33
49 53 45 40 43 40 32 38 92 98 88 60 64 60 68 73 78 84 87 88 79 86 81 63 53 71 38 38 18 17 44 93 99 98 99 74 35 32 36 48 52 37 40 43 48 48 42 45 45
46 47 43 48 54 49 41 48 98 100 71 60 60 68 73 76 79 92 94 96 100 93 90 82 76 99 67 53 30 13 34 89 97 82 99 85 50 43 40 59 58 38 54 54 61 60 59 58 58
53 47 52 60 52 60 51 93 98 97 60 54 60 72 75 78 83 96 96 100 98 94 96 97 97 100 94 98 66 30 61 82 87 90 74 99 79 46 72 75 53 57 76 77 75 70 80 86 85
50 48 52 62 81 61 38 84 98 75 54 63 68 73 76 83 85 95 100 96 97 95 94 97 97 99 100 100 98 33 57 88 96 96 100 98 97 56 95 87 85 74 54 58 62 56 52 52 62
62 62 74 76 73 72 79 94 92 68 65 74 76 79 81 89 89 98 99 97 95 96 97 97 98 98 99 100 96 41 56 75 88 87 97 97 100 75 83 81 89 85 84 60 58 50 52 51 52
52 51 63 66 58 83 93 95 88 72 76 76 77 82 89 96 96 98 99 96 97 96 97 97 99 99 99 100 100 96 96 98 100 100 97 100 86 94 82 72 84 74 58 62 58 56 50 57 62

GFSSGP_700_rhum_132.txt.gz
RH
20 21 22 19 18 13 15 17 14 12 11 11 11 10 10 16 16 21 36 46 53 44 38 37 33 28 25 16 18 31 25 20 15 12 11 10 11 14 18 18 20 24 25 38 56 60 64 65 73
19 20 23 24 20 16 19 18 20 13 14 15 13 12 13 17 20 23 33 36 37 35 32 24 26 27 28 18 17 29 26 20 15 12 11 10 9 12 16 17 18 29 37 35 43 59 62 63 68
14 17 21 24 23 19 23 26 24 16 16 15 16 14 17 24 22 22 20 20 19 22 27 19 22 28 27 19 18 27 25 20 16 13 11 10 9 10 13 17 18 24 33 35 45 48 55 58 65
9 15 20 23 20 30 28 18 19 14 20 22 17 21 29 39 41 37 33 29 27 24 17 16 20 31 34 23 19 26 25 18 16 13 12 10 10 10 12 15 17 22 33 34 40 44 52 57 58
4 12 24 24 26 29 21 18 18 22 22 22 23 29 30 43 48 53 47 41 34 30 26 16 16 34 37 25 23 26 26 18 16 14 13 11 10 10 11 13 16 18 29 34 38 46 51 61 62
4 8 17 16 24 24 21 17 20 21 21 21 23 27 29 39 42 45 39 38 34 34 32 29 21 25 46 28 24 26 28 19 16 14 13 12 11 10 12 12 14 16 26 34 38 46 52 61 67
7 8 13 14 16 21 18 16 15 18 19 20 23 22 25 29 30 30 30 31 32 32 32 28 28 25 44 38 26 26 29 22 17 15 14 13 12 11 12 13 13 16 25 34 38 48 56 60 63
7 10 12 12 12 16 16 14 12 19 22 22 23 22 22 23 24 24 20 25 26 29 32 28 30 29 22 46 33 26 30 26 20 16 15 14 13 12 11 12 15 16 22 31 36 50 59 59 59
7 11 7 6 10 12 12 11 10 10 17 20 24 23 22 19 13 9 8 17 24 26 27 30 30 27 28 26 45 30 31 30 24 18 16 15 14 13 12 12 20 18 20 28 31 47 60 58 61
11 12 12 11 14 14 13 12 11 10 10 10 10 12 18 18 6 4 5 6 5 10 16 17 14 27 26 36 33 37 30 31 26 23 18 16 16 15 13 12 16 20 20 26 30 39 53 54 64
14 18 16 16 14 13 12 12 11 9 6 4 3 3 2 2 2 2 3 6 4 3 3 7 8 6 14 22 42 45 35 34 31 26 21 18 17 16 14 13 12 18 20 24 29 33 43 52 61
20 19 17 16 15 14 12 9 6 3 6 6 9 8 8 7 6 6 7 6 6 6 6 6 6 9 14 14 14 53 65 60 37 30 26 20 18 17 16 14 13 15 21 22 28 35 39 51 53
15 17 17 16 14 11 9 5 12 11 13 13 14 18 16 17 16 13 12 12 12 11 8 8 9 10 13 22 23 23 48 76 86 60 34 26 19 18 17 15 14 14 21 23 27 34 35 40 49
14 14 13 12 6 5 9 15 15 14 15 14 18 18 18 19 19 14 17 16 16 20 21 19 15 9 9 14 28 28 29 57 89 87 66 31 23 19 18 17 16 15 23 27 29 32 38 39 45
14 12 8 6 13 15 18 18 15 18 19 19 19 20 21 21 20 17 22 21 20 19 20 21 21 24 16 9 10 20 32 41 78 85 87 62 30 22 20 18 17 16 26 42 41 34 37 38 40
8 8 7 19 17 18 20 17 19 20 21 21 21 21 21 23 23 23 25 26 24 24 26 30 30 25 27 22 14 10 14 29 47 88 97 80 43 26 21 19 18 17 25 48 43 42 33 37 39
15 22 23 20 22 18 19 20 24 24 23 22 20 22 23 25 26 27 27 29 29 30 30 34 27 22 24 26 23 19 10 17 27 46 90 94 69 47 27 20 19 18 20 34 41 36 30 35 41
28 32 29 26 21 20 12 25 28 26 25 22 22 25 25 25 28 30 31 32 34 34 38 36 28 21 20 23 25 24 21 11 17 27 54 92 87 71 55 25 21 19 19 30 32 30 31 26 34
30 32 35 29 27 18 24 31 30 27 26 25 26 30 31 33 36 36 38 38 38 40 36 28 23 24 22 20 22 24 25 18 14 23 29 87 98 86 74 56 24 22 19 20 27 28 23 20 29
37 32 31 28 25 27 32 34 33 32 31 28 35 34 35 38 44 46 46 45 43 38 30 26 29 30 28 25 23 26 26 22 15 18 26 57 100 96 99 84 51 25 22 20 21 24 19 17 26
36 36 33 30 29 35 37 35 30 24 27 38 41 44 45 46 46 47 50 47 40 30 31 40 42 41 38 38 30 30 29 23 21 16 17 26 78 98 93 93 74 50 35 22 21 26 21 17 20
38 36 35 31 34 45 42 47 34 39 44 49 55 55 54 56 58 53 43 33 34 39 46 52 52 53 41 39 37 33 31 28 26 22 19 19 27 84 100 94 82 68 43 24 23 25 24 20 19
38 38 36 42 44 40 46 41 45 47 53 56 58 62 60 56 49 36 37 40 46 53 58 53 53 57 52 43 43 39 35 33 28 25 21 19 21 32 91 99 99 79 60 32 25 25 26 24 21
44 42 40 39 40 67 52 55 68 65 64 67 59 62 61 49 40 44 45 48 55 55 55 53 53 56 54 56 56 41 35 35 33 28 29 26 20 20 41 95 92 94 73 40 26 26 27 26 25
45 45 55 68 76 73 53 53 55 56 59 56 68 70 55 46 47 48 48 52 60 60 58 57 60 60 63 62 55 59 47 28 27 29 36 32 26 20 22 55 99 99 98 55 37 28 29 27 27
33 43 54 75 80 76 48 55 61 58 62 78 82 64 54 54 56 56 61 65 70 74 73 76 82 82 80 75 74 74 68 51 33 23 20 22 34 24 29 44 93 99 81 79 44 34 30 30 28
40 43 43 48 53 73 58 74 70 71 76 86 77 59 56 60 59 64 75 78 79 84 81 86 87 100 94 84 82 83 79 70 52 40 34 16 22 30 30 33 64 99 83 95 54 38 40 32 31
51 47 44 54 77 91 80 93 79 71 88 85 64 62 63 69 69 79 86 84 87 90 88 96 90 96 87 86 88 81 68 56 62 59 40 31 41 44 31 26 45 86 99 89 66 56 42 36 41
54 52 54 53 63 90 96 75 56 73 81 76 67 67 67 75 73 86 90 91 92 93 94 93 92 98 95 84 87 100 95 82 48 42 26 27 40 40 22 25 43 88 95 88 80 63 59 52 55
65 69 62 63 77 87 87 78 55 54 68 73 75 70 57 54 60 88 94 92 88 84 94 95 95 96 94 82 89 99 83 90 100 99 50 57 38 30 21 46 72 91 88 99 96 80 69 64 60

GFSSGP_700_rhum_135.txt.gz
RH
19 20 19 17 15 16 18 18 14 13 12 12 11 11 11 16 16 24 41 62 52 44 37 31 27 28 32 34 21 20 29 24 19 16 13 13 13 13 12 12 15 20 24 31 43 48 53 60 66
17 19 21 19 14 16 20 24 26 19 13 17 12 13 15 17 20 24 31 35 28 26 26 28 26 22 30 35 29 21 27 27 20 16 14 14 13 15 14 13 14 17 29 32 36 50 54 58 60
12 16 19 20 19 19 28 27 21 18 15 16 15 15 14 22 25 29 28 25 20 20 22 23 21 18 19 33 36 24 26 30 21 17 15 14 14 15 17 15 14 16 29 38 38 48 53 56 57
8 12 18 20 27 28 22 20 19 16 20 15 19 19 24 30 38 31 25 24 21 18 18 21 21 20 19 37 36 29 26 31 25 18 15 15 14 16 19 18 17 17 23 36 40 46 46 50 53
4 9 14 19 28 28 21 22 22 15 22 23 22 23 27 44 47 51 44 38 34 33 30 27 26 28 24 42 44 30 29 34 31 20 16 15 14 16 19 20 19 18 20 33 40 46 46 52 57
5 6 12 20 30 26 20 19 22 22 23 22 28 28 29 37 40 29 29 40 41 36 34 32 30 28 29 24 54 45 32 33 39 25 18 16 15 15 16 19 20 20 21 29 36 42 49 51 62
11 9 11 18 22 22 19 15 14 20 22 24 26 31 33 33 35 32 30 26 28 26 25 28 29 29 26 28 29 49 41 36 37 31 20 17 16 16 16 17 18 19 21 25 36 40 49 55 59
9 10 11 13 16 16 17 14 12 11 20 22 23 24 23 25 25 26 25 23 18 12 9 16 21 18 20 28 29 37 48 40 40 34 25 18 16 15 16 15 16 19 20 22 33 38 49 57 59
10 11 11 8 6 8 12 13 12 11 10 11 19 24 22 19 20 20 19 16 11 6 6 12 20 24 25 28 27 28 48 53 52 55 39 26 19 16 15 15 15 17 20 22 29 36 46 56 60
14 16 14 12 11 11 12 12 12 12 12 10 9 7 8 7 7 6 7 6 5 3 4 6 8 11 16 19 17 29 29 48 48 53 67 40 29 21 17 16 16 17 20 24 23 33 42 55 60
18 20 17 16 16 13 12 12 12 11 8 5 5 4 5 6 8 8 8 8 6 6 6 6 6 5 6 8 8 12 35 46 49 63 77 57 36 28 20 17 16 14 16 25 22 28 35 51 58
19 19 20 21 18 17 16 14 10 7 5 9 10 10 9 9 8 6 6 9 14 11 8 7 8 11 10 13 12 10 18 55 73 60 68 68 68 34 24 19 17 15 15 23 23 26 34 46 56
19 18 19 18 18 16 15 13 10 9 14 13 13 14 12 9 7 8 9 11 17 18 14 9 6 8 10 10 12 16 23 23 57 84 68 69 62 46 34 24 20 17 15 18 26 26 31 39 49
22 21 19 16 12 13 14 10 11 16 16 17 17 16 16 16 17 20 19 17 17 22 19 16 16 17 13 11 14 13 11 21 24 50 98 90 76 72 47 32 22 19 17 17 26 29 32 39 44
18 17 14 9 9 7 11 14 14 18 17 19 19 19 20 20 21 21 20 16 18 22 23 22 22 24 26 26 21 15 15 15 11 18 36 100 99 86 84 52 28 20 19 18 22 32 32 36 40
14 10 8 18 18 17 20 17 18 19 20 20 21 22 23 22 21 21 21 20 22 26 26 27 27 28 28 26 28 21 16 15 16 12 11 26 93 100 89 81 43 26 22 20 20 35 34 34 34
13 18 24 22 21 20 20 20 21 24 24 24 25 25 25 21 22 23 24 26 28 30 32 31 31 32 33 31 32 25 17 17 14 15 13 10 17 88 100 91 78 37 45 23 23 41 48 42 34
27 32 31 31 26 26 28 22 21 27 29 28 27 27 26 25 24 29 31 33 35 37 38 37 37 36 36 33 24 19 15 16 16 16 16 14 11 19 94 98 82 87 45 52 52 50 57 48 40
37 36 39 32 29 30 26 26 29 33 33 34 34 34 32 28 32 36 38 40 42 45 45 44 39 35 30 24 22 20 18 18 17 17 19 18 15 12 25 90 96 76 67 34 54 53 54 55 47
42 43 36 34 35 33 30 29 27 34 35 34 34 30 29 36 42 45 48 51 50 47 36 28 27 27 28 28 28 28 25 23 21 18 19 21 20 13 17 39 97 95 64 45 57 49 47 58 60
41 44 40 36 37 35 30 29 32 34 33 28 34 37 38 50 50 53 54 51 43 33 29 27 33 44 44 45 42 37 31 26 24 22 21 26 24 18 16 19 85 87 91 74 58 48 46 56 77
41 39 38 39 37 39 43 49 38 38 41 33 39 38 47 56 59 57 53 42 37 34 31 35 43 47 47 43 42 42 31 28 28 28 25 27 27 23 17 20 30 99 99 93 73 51 55 61 69
40 45 40 40 45 45 45 48 33 38 40 41 43 51 62 60 61 52 42 42 37 37 39 45 47 56 54 55 49 45 43 39 33 30 29 29 30 30 23 22 23 71 99 100 88 60 66 56 66
32 47 46 45 41 61 39 45 50 57 55 60 67 66 62 65 52 46 49 41 43 45 53 60 59 56 52 55 60 57 46 42 49 46 31 29 32 33 28 23 24 32 57 98 99 85 62 57 56
40 41 51 62 80 72 58 57 51 52 53 52 52 66 70 56 52 53 46 41 44 48 57 63 61 56 48 56 59 64 55 47 41 52 45 34 34 32 32 29 25 26 33 49 95 100 70 63 60
47 41 48 80 80 66 54 52 48 48 46 58 68 74 63 58 56 57 52 51 61 64 71 70 66 58 56 56 64 72 76 64 63 74 72 44 41 37 37 35 29 28 30 39 97 99 97 67 61
48 47 44 51 51 74 57 55 49 48 48 53 75 73 64 60 65 61 58 66 78 75 82 82 80 73 67 66 74 93 83 73 82 92 88 69 48 40 40 40 34 29 29 34 84 98 85 88 67
50 65 70 87 92 85 80 74 54 49 48 60 68 67 68 63 63 57 66 77 82 77 75 90 88 84 81 78 80 90 97 98 73 100 97 82 58 40 27 20 32 35 20 28 54 96 91 97 72
60 56 71 70 58 87 96 70 48 58 49 60 67 73 77 64 51 51 58 76 81 74 64 72 90 91 86 91 85 81 94 99 79 83 98 63 48 36 29 22 18 27 22 18 29 74 100 99 72
70 72 76 98 74 81 93 77 60 52 52 62 80 85 73 66 53 53 56 58 82 74 64 47 73 78 91 94 95 91 85 84 91 93 100 98 77 40 31 28 32 27 24 59 30 55 79 90 89

GFSSGP_700_rhum_138.txt.gz
RH
18 20 19 18 15 13 19 19 26 19 14 14 11 13 14 20 23 36 68 64 52 36 31 28 26 25 31 39 44 32 23 28 28 22 19 16 16 17 18 16 18 16 17 19 27 40 44 53 59
14 18 20 20 20 16 23 25 23 18 16 20 16 14 18 17 19 24 25 26 26 25 25 25 26 24 19 25 41 47 32 30 32 25 20 18 17 17 18 18 20 19 19 26 30 40 51 51 52
10 14 19 22 26 25 26 25 19 17 14 17 16 18 15 22 27 28 27 26 24 27 28 29 27 28 26 20 43 47 45 34 37 30 22 19 19 18 18 19 21 20 20 29 36 36 47 52 52
6 10 16 28 27 24 24 24 24 19 19 16 20 21 22 29 42 38 37 39 35 29 28 30 30 29 29 26 28 60 53 37 40 38 27 20 18 18 18 18 19 23 22 27 34 40 46 47 46
4 6 12 23 33 24 21 24 23 23 24 22 21 25 32 45 50 41 43 41 37 38 37 35 31 29 28 28 27 35 63 48 46 46 34 24 18 16 16 16 16 25 31 23 31 41 46 44 44
7 6 9 19 30 28 22 20 21 25 28 27 29 36 37 46 48 42 37 38 41 41 36 31 25 23 23 22 26 28 53 55 49 54 50 33 24 19 17 17 16 20 25 24 22 35 42 46 48
9 9 10 14 25 27 22 20 17 20 23 23 26 38 39 42 38 32 27 29 32 29 24 14 11 11 13 16 22 29 29 52 49 49 59 46 30 23 18 17 17 17 24 27 23 29 38 44 48
9 10 12 14 16 21 21 20 18 16 14 18 21 21 23 24 29 29 27 24 20 16 13 12 9 6 12 14 21 25 30 35 49 47 52 60 42 30 22 18 17 16 25 24 22 24 36 42 48
12 12 12 9 8 12 14 15 15 15 12 11 11 12 14 19 22 22 20 16 13 9 8 6 6 6 7 10 11 19 22 25 41 49 55 58 56 41 31 22 19 18 18 23 23 24 33 38 47
18 17 14 12 12 13 12 12 13 13 13 12 11 9 8 7 7 6 6 7 9 8 9 8 8 8 8 8 9 8 13 16 30 55 68 75 65 53 41 30 22 19 20 23 22 24 28 36 42
21 20 19 16 14 15 15 13 13 14 13 11 8 7 7 8 10 12 12 10 8 7 8 8 8 7 8 8 9 9 8 11 21 47 74 90 70 64 52 42 30 30 24 35 40 28 24 32 39
20 19 19 20 20 20 19 18 16 15 11 11 12 11 12 12 12 11 12 12 12 14 14 16 11 6 7 8 8 11 11 12 13 28 92 95 98 75 78 56 39 39 37 30 22 21 28 31 38
22 22 20 18 18 18 18 17 16 15 10 14 15 15 14 14 15 14 13 14 17 18 17 20 20 14 15 17 14 14 17 17 14 15 19 78 100 99 89 81 68 40 33 26 30 27 27 30 36
20 19 19 18 17 14 11 12 14 12 14 17 17 17 18 19 20 22 22 20 17 18 20 21 22 23 21 21 21 21 16 13 17 20 19 12 31 98 100 93 82 59 37 35 33 32 32 31 34
21 18 16 11 11 13 12 10 14 14 16 18 19 19 20 22 23 25 22 16 16 20 24 26 27 27 27 26 25 21 18 16 16 17 20 20 18 15 78 100 97 75 64 40 38 44 30 37 35
22 18 11 15 19 18 19 18 19 18 18 19 20 21 22 24 26 26 25 22 21 26 31 32 34 35 34 29 23 22 20 16 11 9 12 16 18 18 12 64 100 92 71 64 35 36 32 35 42
22 19 20 19 22 21 24 26 22 20 21 24 25 25 26 27 28 28 30 28 26 35 39 40 41 38 36 33 29 23 14 12 9 9 9 11 14 16 17 14 66 99 89 69 57 34 36 34 59
33 29 26 26 23 26 27 28 28 26 24 24 27 30 30 32 33 34 30 29 36 41 39 41 41 37 34 28 23 21 19 17 16 15 13 13 12 14 16 14 13 45 85 88 54 42 34 34 59
39 40 41 33 28 31 30 32 32 31 31 31 34 35 33 33 34 29 35 43 48 46 46 43 39 34 26 22 19 20 22 22 19 22 21 16 15 14 14 16 13 12 47 97 83 62 40 37 58
38 44 42 40 35 35 37 38 36 33 28 27 32 34 29 30 42 45 56 54 49 48 46 39 30 25 22 21 23 25 29 27 21 21 26 25 21 17 16 16 16 11 34 65 100 81 67 52 62
41 38 38 40 40 40 39 37 35 33 33 32 33 35 34 42 38 48 56 52 48 38 32 29 26 25 27 31 33 35 44 42 36 27 22 27 26 23 20 17 18 17 19 53 58 99 80 65 64
42 39 42 41 42 42 44 50 40 37 38 35 33 36 40 46 52 59 56 47 41 37 33 32 34 38 47 49 45 45 44 36 38 33 32 31 28 26 23 20 20 22 19 22 63 69 88 82 69
32 35 38 45 45 47 48 51 37 37 35 36 41 48 56 64 60 57 48 46 44 41 36 44 50 51 56 54 48 42 38 28 30 37 36 42 33 31 26 23 23 26 25 23 32 79 96 73 78
34 40 46 49 49 65 42 46 38 43 48 54 55 60 59 63 59 51 50 52 49 43 46 62 57 61 59 52 47 38 36 40 42 47 51 43 36 36 35 29 25 29 33 25 30 33 85 91 92
46 48 51 63 81 66 54 57 44 47 50 48 50 52 61 58 53 60 55 51 46 44 63 65 63 59 57 56 48 45 49 46 45 51 58 53 48 47 45 35 34 36 40 29 26 28 48 85 96
45 49 51 74 87 66 57 62 49 48 42 49 42 45 55 56 63 62 54 50 47 63 63 61 67 63 60 59 54 56 59 53 51 58 39 49 63 60 52 45 38 40 42 35 25 27 29 99 82
48 54 56 63 63 76 56 51 48 46 50 50 42 43 52 65 74 61 52 48 48 71 64 46 55 59 58 68 64 59 58 66 76 66 33 44 79 79 63 52 47 48 44 33 27 27 27 52 82
52 53 56 69 95 94 74 69 50 40 54 50 44 52 65 75 78 63 53 47 48 62 67 44 44 62 48 71 79 74 73 81 95 64 49 75 97 94 64 52 52 48 43 35 29 32 30 34 85
56 69 68 78 86 96 93 65 47 48 55 53 57 55 72 75 67 65 52 51 48 48 65 45 38 37 43 41 81 84 86 86 92 100 90 97 98 97 76 38 27 26 37 33 30 30 25 30 30
68 79 82 80 92 92 97 78 63 66 64 72 66 60 74 71 68 66 54 51 44 41 42 39 28 25 25 33 70 88 96 100 94 100 87 91 98 98 88 50 30 24 16 14 28 31 27 19 32

GFSSGP_700_rhum_141.txt.gz
RH
16 18 20 18 18 15 20 22 21 17 15 13 12 14 22 37 43 42 62 60 47 30 28 28 29 30 29 33 43 50 51 36 32 33 28 24 21 18 17 15 14 16 15 20 24 31 38 48 53
13 16 20 21 19 18 25 25 21 15 19 22 21 19 20 20 28 59 60 53 44 40 34 30 27 26 26 22 28 48 65 57 39 33 32 26 21 19 17 17 23 17 16 18 29 35 41 48 50
10 12 18 20 21 24 25 24 22 17 16 20 24 31 20 28 28 28 32 28 27 26 24 24 26 27 29 30 28 23 52 64 57 49 39 31 25 20 19 17 17 20 22 18 27 35 36 44 50
6 11 19 25 23 23 24 23 24 19 16 18 22 26 28 30 28 26 27 32 35 34 33 34 36 34 32 30 30 30 29 48 57 54 53 42 30 27 26 21 16 18 28 26 24 30 37 39 43
5 7 18 28 24 22 23 24 24 26 19 18 23 26 25 30 33 35 36 38 37 36 36 36 34 31 20 13 18 26 29 34 62 52 49 53 42 30 28 27 18 17 20 27 27 28 35 37 37
10 7 13 26 29 24 21 23 23 25 29 30 31 30 33 34 38 40 39 36 34 36 36 34 28 19 12 10 9 16 28 37 48 61 53 47 49 38 29 26 27 31 22 22 30 27 26 34 37
14 12 10 20 30 26 21 17 20 23 24 23 29 36 36 38 39 38 35 32 32 32 28 24 21 17 14 11 8 7 19 30 39 56 61 55 53 46 37 29 26 31 37 24 26 29 24 29 34
15 13 12 16 27 23 20 19 15 13 14 17 20 22 25 27 28 28 28 28 24 20 18 16 12 9 7 6 6 8 10 19 27 39 53 60 54 59 54 40 29 25 30 31 33 30 24 25 36
22 18 13 11 17 20 19 19 17 15 13 12 12 11 12 14 17 19 18 16 12 9 8 8 8 8 8 8 7 8 9 9 14 20 42 71 65 60 59 59 48 32 28 31 30 36 32 25 31
22 19 16 14 10 11 11 12 12 13 14 13 13 12 11 9 8 8 8 10 11 12 10 9 10 10 9 7 7 8 9 9 10 12 16 57 83 82 70 61 66 60 38 34 35 37 36 30 26
18 20 21 19 16 15 17 17 16 15 15 14 13 11 10 9 10 12 12 11 10 10 10 11 11 12 11 9 9 9 9 10 10 12 15 17 53 93 92 81 68 56 59 43 42 45 49 33 29
21 21 20 19 19 20 20 20 18 17 16 14 12 12 13 14 14 15 16 16 18 16 12 13 16 17 15 13 15 20 22 23 20 13 11 15 22 56 98 99 95 68 56 44 38 33 40 59 34
19 20 20 20 20 19 19 18 18 17 16 16 14 15 16 16 17 18 19 20 22 20 16 18 22 24 25 21 18 15 17 19 21 24 25 21 14 18 77 98 99 93 78 56 42 37 42 43 46
15 17 19 17 16 15 15 14 13 14 14 14 17 17 18 18 19 21 23 24 25 24 21 20 26 29 30 30 27 20 17 14 15 19 21 22 24 25 19 26 87 100 92 84 60 42 37 36 62
15 13 15 14 13 15 14 12 10 10 12 14 16 19 20 20 21 22 25 26 27 28 27 20 24 32 29 26 27 26 24 18 16 13 13 17 17 16 17 18 17 38 98 92 86 55 38 31 41
19 17 14 14 14 17 18 19 20 20 20 20 19 20 20 22 23 25 26 27 30 32 27 21 30 28 18 17 19 19 20 20 19 16 13 12 13 12 12 13 15 14 76 100 97 84 64 41 34
23 22 21 18 18 21 23 24 25 26 27 24 24 24 23 22 26 29 30 33 32 25 28 32 38 30 24 26 26 23 23 21 18 16 15 12 8 10 10 9 10 14 13 32 89 97 94 72 38
29 32 32 28 24 26 27 28 29 30 32 30 29 28 27 28 31 30 32 31 30 41 48 44 35 35 34 28 25 23 21 19 16 15 16 16 12 11 12 11 9 9 12 13 32 90 98 95 60
36 39 38 31 32 36 30 30 33 37 36 35 32 29 28 30 33 34 28 35 39 53 47 43 39 31 28 25 22 19 18 18 18 20 20 21 25 22 14 12 10 12 11 12 15 57 78 97 81
35 35 33 34 35 39 36 35 36 37 36 34 33 33 35 37 38 39 48 46 56 50 46 37 33 30 25 21 20 21 22 25 27 31 28 26 33 32 25 20 17 13 14 13 12 16 67 83 90
38 37 39 39 39 39 39 39 34 33 32 31 35 38 37 41 42 51 54 57 52 45 40 36 33 29 28 28 32 34 35 39 40 35 31 33 33 26 29 24 22 18 18 18 16 14 33 67 99
27 26 37 40 43 44 44 40 39 36 29 29 30 34 37 46 56 62 59 52 44 44 43 40 34 31 37 47 50 49 44 39 36 32 28 26 26 21 22 28 27 20 23 22 21 18 18 21 29
42 34 39 39 49 51 52 53 40 37 34 41 42 46 51 57 59 61 46 51 53 48 44 39 39 42 52 52 50 48 45 40 33 31 30 30 32 34 39 37 38 25 28 28 28 24 30 35 33
45 45 41 44 47 53 46 50 46 36 41 48 47 49 46 54 60 52 52 61 54 47 43 40 48 50 54 53 54 51 44 36 29 33 40 35 31 36 50 44 44 36 32 30 34 31 32 25 48
44 47 50 53 63 48 56 58 47 44 47 50 51 48 42 51 51 55 68 59 51 45 40 40 49 44 49 50 42 54 44 40 46 47 49 48 40 28 28 47 46 41 39 34 43 35 36 27 27
48 49 48 70 60 51 56 55 53 46 43 49 54 51 46 47 49 63 69 60 51 46 40 43 43 31 23 27 40 59 49 43 52 62 66 56 38 28 32 48 52 50 50 39 50 50 35 32 24
50 55 57 60 61 75 60 51 50 49 49 51 55 50 54 53 53 71 69 59 50 48 38 42 38 22 17 16 35 64 52 54 71 57 42 32 34 40 52 68 73 66 55 52 59 60 43 37 27
52 49 59 63 82 71 63 74 54 45 49 61 54 67 71 55 64 66 66 58 53 45 36 36 27 17 14 13 16 66 68 64 73 73 68 72 88 94 97 100 100 71 60 62 65 60 46 39 29
44 58 70 72 73 77 77 65 54 56 65 63 57 61 76 59 73 71 71 58 54 42 35 27 18 14 12 12 12 42 56 77 71 80 77 65 77 80 99 99 100 98 72 69 65 56 49 44 31
66 78 85 84 87 97 98 76 56 63 50 38 44 72 81 67 75 74 68 59 53 41 31 24 16 13 12 11 10 12 25 83 78 87 86 85 94 76 88 98 99 100 76 72 61 50 46 41 31

GFSSGP_700_rhum_144.txt.gz
RH
16 17 17 16 24 16 17 21 19 27 38 14 54 51 44 54 59 78 58 62 40 37 41 36 35 31 28 25 24 25 30 51 55 48 45 43 36 29 29 23 17 22 17 17 22 27 37 44 52
13 15 17 19 21 14 19 22 24 35 16 13 13 26 32 42 46 30 50 60 49 41 37 44 35 30 28 29 30 28 26 36 50 54 50 47 43 39 33 27 20 24 28 18 22 32 38 42 51
10 13 24 28 22 15 19 24 27 19 20 27 24 23 20 26 30 35 44 50 45 38 34 33 33 35 35 33 30 27 25 28 44 57 53 52 50 44 48 54 40 24 28 31 21 29 38 44 52
6 11 17 23 21 26 22 27 24 22 21 21 26 26 21 25 38 46 33 31 29 31 33 35 36 36 33 29 14 12 14 22 30 52 62 52 53 49 36 35 44 39 30 30 32 23 29 40 51
5 9 23 22 24 25 22 27 30 35 24 22 27 26 22 22 24 26 29 31 35 37 36 36 36 33 30 27 14 12 10 16 28 46 67 62 55 53 47 35 36 47 31 26 31 32 26 33 42
16 8 16 20 23 25 22 24 22 32 31 29 32 32 28 27 30 32 33 33 37 36 32 33 32 30 25 21 18 14 12 8 26 36 64 74 62 54 51 48 34 33 35 40 29 32 32 26 37
18 18 17 20 22 20 17 21 21 23 28 27 35 36 34 33 36 36 39 38 34 31 31 28 24 22 20 17 11 7 6 5 10 27 35 52 75 63 54 50 51 35 33 39 47 31 32 29 30
14 16 19 23 21 17 20 15 14 14 14 23 25 30 29 30 32 36 38 33 29 27 23 19 15 9 6 6 6 6 6 7 7 10 20 28 43 75 68 58 53 58 38 30 36 35 34 32 26
20 17 16 18 21 18 22 16 17 15 14 13 12 12 13 14 18 20 21 22 19 14 10 9 9 9 8 8 8 7 7 8 8 8 9 16 22 48 72 72 68 60 60 50 27 32 33 35 30
22 18 16 16 13 16 17 16 16 15 16 14 14 13 13 12 11 10 9 8 10 12 12 12 11 9 9 12 11 8 7 7 8 9 9 9 13 32 58 72 72 73 68 66 78 44 37 37 34
18 18 20 20 18 14 13 16 17 17 18 13 14 14 13 11 10 10 12 13 13 13 15 14 11 14 16 14 17 17 17 19 18 13 9 11 12 12 48 90 83 86 75 67 75 69 53 46 42
18 20 20 18 18 19 20 21 20 21 19 18 17 15 12 11 14 14 16 16 17 17 18 20 15 13 18 22 21 18 19 17 20 22 24 22 17 14 12 25 75 94 96 82 69 68 64 46 44
15 16 16 16 18 19 19 18 22 18 19 18 17 16 14 14 16 17 18 20 21 22 23 22 24 22 16 24 26 24 21 16 15 14 16 18 23 21 20 14 17 80 98 98 90 66 65 65 57
12 13 13 12 14 12 14 15 16 14 15 15 15 15 17 18 18 19 19 21 22 22 25 26 28 28 19 18 28 27 22 21 20 18 14 15 16 18 20 20 16 14 64 91 95 94 75 67 63
17 18 16 14 12 12 13 13 13 12 11 11 12 15 17 18 20 20 22 22 24 25 25 25 26 18 15 18 30 26 16 16 17 17 17 18 17 15 16 17 18 18 15 34 78 92 92 82 74
24 21 19 19 14 15 15 19 17 17 19 20 20 20 21 21 23 23 22 24 26 27 27 26 20 23 31 31 30 28 18 20 22 20 18 18 18 17 16 13 14 17 16 15 15 64 78 90 85
26 20 25 26 20 24 25 26 27 24 26 26 26 25 24 24 24 25 26 27 29 31 28 27 38 41 39 33 29 25 24 24 22 20 18 15 14 14 14 15 14 13 14 12 12 14 36 69 92
25 26 27 28 30 33 33 32 35 28 29 30 31 31 31 30 29 29 32 35 36 32 36 45 50 42 36 32 29 27 24 21 19 17 16 15 15 14 13 14 14 13 10 12 11 10 10 44 64
32 37 33 32 34 40 37 35 40 32 32 31 33 33 33 34 34 33 36 38 38 45 52 53 44 38 35 32 26 19 17 18 19 20 18 17 19 20 15 13 16 16 14 11 12 12 10 11 30
36 38 35 37 38 36 36 35 40 36 35 34 33 34 34 35 38 41 42 48 54 58 52 43 39 38 34 27 24 24 27 32 33 33 31 30 30 31 30 27 23 26 25 19 14 16 14 10 18
39 39 36 37 41 38 42 29 40 33 27 26 30 34 37 39 40 45 56 62 57 43 40 42 42 36 31 29 30 37 43 44 41 39 37 37 35 33 29 27 25 27 28 23 19 21 21 12 29
35 38 38 39 37 29 43 23 32 43 29 29 32 34 37 42 48 51 52 55 40 45 52 46 41 36 32 32 37 42 43 42 41 37 35 35 33 33 29 26 22 22 22 22 22 19 23 23 21
40 43 46 46 43 45 35 40 34 36 35 35 39 40 44 39 35 43 47 40 47 57 51 45 38 34 34 34 32 27 32 40 38 34 36 39 40 38 35 33 32 28 24 23 23 26 24 26 25
45 47 51 54 44 37 33 35 26 42 40 42 45 48 46 36 36 43 43 49 61 57 51 44 37 37 30 21 14 15 38 42 36 36 43 47 56 55 46 38 31 26 31 34 35 40 33 28 28
45 44 33 33 45 33 48 43 36 48 47 45 48 52 52 51 46 50 51 58 64 59 49 43 33 39 19 14 12 23 47 45 40 46 54 50 51 57 52 42 34 28 29 44 44 48 40 33 32
49 44 37 46 41 35 38 36 43 49 46 47 50 55 60 50 62 56 52 57 59 56 50 39 31 27 15 12 11 23 37 55 58 70 65 68 54 49 44 37 27 35 46 50 50 51 45 47 71
41 41 55 52 45 45 39 38 57 52 50 50 55 56 59 70 69 57 52 62 62 56 49 34 23 17 13 12 10 15 40 57 64 73 68 63 53 68 70 74 64 58 58 58 60 62 48 54 56
46 48 40 48 65 44 26 32 59 59 57 61 60 58 52 52 68 62 60 68 67 55 44 29 21 16 13 11 10 9 12 46 67 76 70 66 65 66 80 100 96 100 100 82 69 61 58 62 69
46 40 52 56 46 52 58 46 54 52 53 56 49 45 39 45 66 68 69 72 60 56 39 28 21 15 13 11 10 9 10 14 59 83 79 74 71 76 76 88 99 100 99 83 68 75 92 89 67
59 53 65 64 53 71 94 70 63 51 53 56 53 58 60 52 67 75 74 72 61 53 39 29 20 14 13 11 10 10 10 10 10 62 90 90 84 82 72 80 77 89 98 80 91 97 99 85 66

GFSSGP_700_rhum_147.txt.gz
RH
15 16 16 12 23 14 11 14 16 17 34 44 40 44 59 59 61 81 59 78 48 42 35 34 33 34 29 26 28 29 28 26 31 46 45 43 40 39 40 38 43 24 31 21 23 30 40 48 50
13 14 16 29 20 13 11 16 15 32 45 48 50 45 52 53 56 55 50 56 52 41 38 41 44 34 31 32 32 31 26 24 28 40 59 51 51 50 54 55 56 53 30 34 38 35 37 42 50
10 13 30 23 19 15 16 18 21 36 34 35 30 40 30 40 47 34 29 39 55 48 42 37 34 33 32 32 30 21 11 11 13 26 52 62 55 52 50 47 52 59 47 33 37 40 35 39 47
8 24 24 22 16 20 20 23 26 32 32 36 31 23 22 20 19 26 30 40 46 44 38 35 35 34 34 32 29 25 16 13 12 12 32 71 69 54 52 47 44 43 50 37 30 34 36 35 40
10 23 22 18 18 20 19 21 25 27 30 29 28 30 22 23 30 38 44 37 36 32 33 34 34 35 34 30 27 24 20 18 15 10 17 42 80 72 55 49 46 39 39 51 32 27 31 30 34
22 17 15 16 18 20 19 19 26 30 33 32 26 27 24 24 25 26 28 29 31 33 33 33 30 31 30 26 22 20 17 11 7 6 11 26 48 80 75 60 48 46 37 30 38 35 26 31 27
19 18 16 15 18 18 18 18 20 24 27 26 26 30 28 29 30 33 35 34 34 35 32 30 30 26 22 20 16 9 5 5 5 5 6 20 35 54 77 77 66 53 49 45 30 44 43 28 31
18 18 18 18 18 16 16 16 16 17 27 28 28 30 33 31 34 36 37 36 35 33 28 23 20 18 12 7 6 6 5 5 5 5 6 9 20 31 42 64 74 72 64 57 46 29 36 36 32
21 17 15 16 19 17 16 16 17 16 18 17 21 24 20 18 22 23 22 20 20 20 18 13 9 8 8 7 6 6 6 6 5 5 6 7 9 15 36 57 73 75 72 70 62 47 36 35 36
20 17 16 15 16 16 15 16 17 18 20 19 16 14 14 13 13 12 12 11 10 9 8 9 10 10 10 9 8 9 9 9 9 8 6 6 8 10 10 21 53 72 79 80 70 67 73 54 45
18 17 17 17 17 16 15 14 14 14 14 22 28 13 13 13 13 11 10 9 9 11 13 14 15 14 12 10 9 11 12 12 12 12 12 12 10 7 8 10 17 66 85 90 85 71 68 78 71
20 17 17 18 16 19 20 20 19 20 20 19 19 18 16 15 12 11 11 13 14 16 17 18 18 18 16 14 15 10 9 13 16 16 15 13 13 15 15 8 7 10 71 100 99 91 72 72 74
18 18 13 15 14 16 18 19 19 18 18 20 19 18 17 16 14 14 15 16 17 18 19 18 20 22 24 22 19 15 11 17 22 22 20 18 18 16 14 18 17 9 7 14 66 98 99 86 74
15 11 14 16 14 16 12 17 19 14 16 16 16 17 16 14 15 16 18 19 20 21 20 22 24 26 25 23 18 14 14 17 25 24 17 14 15 15 18 17 16 19 16 9 9 51 84 93 96
17 16 19 19 20 20 13 19 27 14 14 13 12 12 12 15 17 18 19 20 21 22 23 24 25 25 22 19 25 35 36 33 30 29 24 20 22 23 20 18 20 19 17 18 11 10 21 77 90
22 24 19 18 21 21 16 17 28 22 17 16 18 19 19 19 19 20 21 22 22 25 27 29 29 26 22 28 36 35 31 29 26 23 21 20 20 20 20 19 18 19 19 17 17 14 11 11 51
26 20 17 19 23 22 23 20 36 28 23 26 24 23 23 24 24 24 26 28 28 29 30 31 30 30 32 42 38 33 28 26 24 20 16 15 15 15 15 15 16 15 15 16 17 16 15 14 12
24 23 20 20 22 27 25 24 27 38 32 30 27 27 28 28 29 30 32 32 32 34 33 31 37 44 46 38 28 26 28 22 18 17 17 16 17 16 14 13 13 14 13 14 15 16 16 14 13
27 25 23 21 22 27 27 27 25 42 35 32 30 30 31 32 32 32 34 36 36 34 46 53 52 39 32 30 32 29 21 19 19 22 26 24 24 24 25 20 16 16 17 16 15 15 17 14 13
29 26 24 23 28 34 26 25 25 33 32 46 55 57 36 32 34 34 35 36 45 54 56 42 35 42 43 38 30 23 20 20 21 26 32 35 33 28 28 28 26 25 28 30 24 21 20 19 16
28 28 27 26 24 27 26 27 22 32 34 30 28 34 33 35 37 36 44 48 52 52 39 39 48 47 41 32 26 25 22 20 21 24 30 35 36 33 31 33 33 33 34 32 29 29 27 30 26
26 31 34 29 26 23 28 25 20 31 39 28 27 28 32 35 40 45 44 47 46 39 49 55 51 45 37 29 28 21 18 20 21 25 34 33 32 31 32 33 33 31 31 28 26 25 25 28 30
25 40 33 31 31 28 25 25 22 34 41 54 32 32 37 42 42 35 40 41 44 44 49 54 50 43 33 30 21 15 15 18 27 38 37 39 44 44 43 41 39 37 37 35 31 28 26 26 28
38 37 34 34 36 34 24 24 22 28 40 45 56 42 45 49 46 43 42 50 50 47 53 54 48 38 32 23 16 13 11 18 27 44 42 54 58 59 51 52 57 57 49 41 33 30 29 28 32
40 30 28 25 33 31 32 32 26 45 50 46 39 45 50 54 55 47 56 60 54 49 56 54 47 31 22 15 13 11 9 13 30 51 50 52 54 61 56 47 46 42 38 38 38 31 31 37 38
33 32 26 28 30 27 26 25 31 41 41 38 44 50 53 60 55 58 61 63 54 57 62 54 40 26 17 13 12 10 8 9 21 51 55 57 55 50 51 49 49 57 55 52 31 28 28 44 47
30 32 41 44 35 35 30 27 38 41 44 43 48 54 54 55 52 40 45 60 56 62 62 52 34 22 16 13 12 9 8 8 10 32 56 63 70 74 71 77 73 69 76 83 62 53 53 57 61
35 31 36 34 54 41 23 24 33 64 59 56 53 58 48 51 55 52 42 44 63 66 59 50 32 22 15 13 12 9 9 9 9 11 62 66 78 88 87 78 66 51 57 87 88 94 89 77 66
34 40 35 34 36 43 46 37 67 56 52 50 53 50 53 58 50 44 53 65 68 69 60 47 31 20 15 13 12 10 10 10 10 10 31 72 79 90 84 76 68 64 85 75 85 88 97 97 99
44 42 35 35 39 39 65 66 60 66 76 45 48 53 59 58 58 54 63 74 71 66 62 46 32 20 15 14 12 11 11 12 11 11 12 46 76 90 93 87 95 96 99 100 98 99 99 99 100